DW7984 Weather Reports


Display with metric or nautical units.
time (UTC)temp
F
wind
direction
speed
MPH
gust
MPH
rain 1hr
in
rain 24hr
in
rain mn
in
humidity
%
barometer
mb
20260508091033 65 118 3.0 7.0 0.00 0.01 0.01 60 1049.4
20260508090709 65 115 3.0 7.0 0.00 0.01 0.01 60 1049.4
20260508090608 65 114 3.0 7.0 0.00 0.01 0.01 58 1049.4
20260508090508 65 114 3.0 7.0 0.00 0.01 0.01 58 1049.3
20260508090408 65 116 3.0 7.0 0.00 0.01 0.01 58 1049.3
20260508090309 65 129 3.0 7.0 0.00 0.01 0.01 59 1049.3
20260508090206 65 129 3.0 7.0 0.00 0.01 0.01 60 1049.3
20260508090108 65 120 3.0 7.0 0.00 0.01 0.01 59 1049.3
20260508090007 65 253 3.0 7.0 0.00 0.01 0.01 59 1049.3
20260508085907 65 253 3.0 7.0 0.00 0.01 0.01 59 1049.3
20260508085804 65 253 3.0 7.0 0.00 0.01 0.01 58 1049.3
20260508085739 65 253 3.0 7.0 0.00 0.01 0.01 60 1049.3
20260508085729 65 208 3.0 7.0 0.00 0.01 0.01 59 1049.3
20260508085720 65 205 3.0 7.0 0.00 0.01 0.01 59 1049.3
20260508085703 65 213 3.0 7.0 0.00 0.01 0.01 59 1049.3
20260508085438 65 150 3.0 7.0 0.00 0.01 0.01 60 1049.3
20260508085104 65 147 3.0 6.0 0.00 0.01 0.01 60 1049.3
20260508085023 64 146 3.0 6.0 0.00 0.01 0.01 60 1049.2
20260508085003 64 147 3.0 6.0 0.00 0.01 0.01 60 1049.2
20260508084904 64 147 3.0 6.0 0.00 0.01 0.01 60 1049.2
20260508084803 64 147 2.0 6.0 0.00 0.01 0.01 64 1049.2
20260508084703 64 147 2.0 6.0 0.00 0.01 0.01 63 1049.2
20260508084602 64 143 2.0 5.0 0.00 0.01 0.01 63 1049.2
20260508084536 64 143 2.0 4.0 0.00 0.01 0.01 63 1049.2
20260508084529 64 143 2.0 4.0 0.00 0.01 0.01 63 1049.2
20260508084520 64 143 2.0 4.0 0.00 0.01 0.01 63 1049.2
20260508084154 64 143 2.0 7.0 0.00 0.01 0.01 64 1049.2
20260508084056 64 143 2.0 7.0 0.00 0.01 0.01 63 1049.1
20260508084021 64 143 2.0 7.0 0.00 0.01 0.01 64 1049.1
20260508083956 64 143 2.0 7.0 0.00 0.01 0.01 64 1049.1
20260508083855 64 148 2.0 7.0 0.00 0.01 0.01 64 1049.1
20260508083751 64 148 3.0 7.0 0.00 0.01 0.01 65 1049.0
20260508083702 64 148 3.0 7.0 0.00 0.01 0.01 65 1049.0
20260508083645 63 149 3.0 7.0 0.00 0.01 0.01 65 1049.0
20260508083632 63 149 3.0 7.0 0.00 0.01 0.01 65 1049.0
20260508083623 63 149 3.0 7.0 0.00 0.01 0.01 65 1049.0
20260508083044 63 145 3.0 7.0 0.00 0.01 0.01 64 1049.1
20260508083029 63 145 3.0 7.0 0.00 0.01 0.01 63 1049.1
20260508083018 63 145 3.0 7.0 0.00 0.01 0.01 64 1049.1
20260508083004 63 145 3.0 7.0 0.00 0.01 0.01 65 1049.1
20260508082646 63 150 3.0 7.0 0.00 0.01 0.01 64 1049.0
20260508082544 63 150 3.0 7.0 0.00 0.01 0.01 64 1049.0
20260508082525 63 150 3.0 7.0 0.00 0.01 0.01 63 1049.0
20260508082445 63 150 3.0 7.0 0.00 0.01 0.01 63 1049.0
20260508082343 63 151 3.0 8.0 0.00 0.01 0.01 63 1049.0
20260508082242 63 150 3.0 8.0 0.00 0.01 0.01 62 1049.0
20260508082140 63 150 3.0 8.0 0.00 0.01 0.01 61 1049.0
20260508082042 63 150 3.0 8.0 0.00 0.01 0.01 61 1048.8
20260508082021 63 153 3.0 8.0 0.00 0.01 0.01 61 1048.8
20260508082010 63 160 3.0 8.0 0.00 0.01 0.01 61 1048.8
20260508082000 63 160 3.0 8.0 0.00 0.01 0.01 60 1048.8
20260508081640 63 160 2.0 8.0 0.00 0.01 0.01 59 1048.8
20260508081520 63 137 2.0 8.0 0.00 0.01 0.01 62 1048.8
20260508081440 63 137 2.0 7.0 0.00 0.01 0.01 66 1048.7
20260508081341 63 137 2.0 5.0 0.00 0.01 0.01 65 1048.7
20260508081242 63 137 2.0 5.0 0.00 0.01 0.01 65 1048.7
20260508081140 63 137 2.0 5.0 0.00 0.01 0.01 64 1048.6
20260508081020 63 137 2.0 5.0 0.00 0.01 0.01 64 1048.6
20260508080942 63 137 2.0 5.0 0.00 0.01 0.01 64 1048.6
20260508080838 63 137 3.0 5.0 0.00 0.01 0.01 64 1048.6
20260508080738 63 137 2.0 5.0 0.00 0.01 0.01 64 1048.6
20260508080636 63 135 2.0 5.0 0.00 0.01 0.01 65 1048.6
20260508080536 63 137 2.0 5.0 0.00 0.01 0.01 66 1048.6
20260508080519 63 138 2.0 5.0 0.00 0.01 0.01 66 1048.6
20260508080437 63 138 2.0 5.0 0.00 0.01 0.01 65 1048.6
20260508080339 63 138 2.0 5.0 0.00 0.01 0.01 65 1048.5
20260508080234 63 137 2.0 5.0 0.00 0.01 0.01 65 1048.5
20260508080134 63 138 1.0 5.0 0.00 0.01 0.01 66 1048.5
20260508080034 63 138 1.0 5.0 0.00 0.01 0.01 66 1048.5
20260508080018 63 137 1.0 5.0 0.00 0.01 0.01 66 1048.5
20260508075934 63 222 1.0 4.0 0.00 0.01 0.01 66 1048.5
20260508075834 63 222 1.0 4.0 0.00 0.01 0.01 66 1048.4
20260508075734 63 224 1.0 4.0 0.00 0.01 0.01 65 1048.4
20260508075632 63 223 1.0 4.0 0.00 0.01 0.01 66 1048.4
20260508075517 63 223 1.0 4.0 0.00 0.01 0.01 67 1048.5
20260508075505 63 222 0.0 4.0 0.00 0.01 0.01 70 1048.4
20260508075455 63 224 0.0 4.0 0.00 0.01 0.01 71 1048.4
20260508075443 63 226 0.0 2.0 0.00 0.01 0.01 71 1048.4
20260508075433 63 226 0.0 2.0 0.00 0.01 0.01 70 1048.4
20260508075425 63 225 1.0 2.0 0.00 0.01 0.01 71 1048.4
20260508074831 63 226 1.0 2.0 0.00 0.01 0.01 71 1048.3
20260508074731 63 226 1.0 2.0 0.00 0.01 0.01 72 1048.4
20260508074630 62 226 1.0 3.0 0.00 0.01 0.01 72 1048.3
20260508074524 62 226 1.0 3.0 0.00 0.01 0.01 72 1048.4
20260508074514 62 226 1.0 4.0 0.00 0.01 0.01 72 1048.4
20260508074454 62 226 2.0 4.0 0.00 0.01 0.01 72 1048.3
20260508074444 62 226 2.0 4.0 0.00 0.01 0.01 72 1048.3
20260508074122 62 228 2.0 4.0 0.00 0.01 0.01 72 1048.3
20260508074027 62 226 2.0 4.0 0.00 0.01 0.01 73 1048.4
20260508074014 62 226 2.0 5.0 0.00 0.01 0.01 72 1048.4
20260508073949 62 226 2.0 5.0 0.00 0.01 0.01 73 1048.4
20260508073939 62 226 2.0 5.0 0.00 0.01 0.01 73 1048.4
20260508073629 62 226 2.0 5.0 0.00 0.01 0.01 74 1048.4
20260508073611 62 226 2.0 5.0 0.00 0.01 0.01 74 1048.4
20260508073556 61 226 2.0 5.0 0.00 0.01 0.01 75 1048.4
20260508073546 61 226 2.0 5.0 0.00 0.01 0.01 74 1048.3
20260508073022 61 228 2.0 4.0 0.00 0.01 0.01 75 1048.3
20260508073008 61 229 2.0 4.0 0.00 0.01 0.01 75 1048.3
20260508072906 61 229 2.0 4.0 0.00 0.01 0.01 75 1048.4
20260508072811 61 230 2.0 4.0 0.00 0.01 0.01 75 1048.3
20260508072801 61 229 2.0 4.0 0.00 0.01 0.01 75 1048.3
20260508072745 61 230 2.0 4.0 0.00 0.01 0.01 75 1048.3
20260508072506 61 230 2.0 4.0 0.00 0.01 0.01 75 1048.4
20260508072437 61 231 3.0 4.0 0.00 0.01 0.01 75 1048.3
20260508072429 62 262 2.0 6.0 0.00 0.01 0.01 75 1048.3
20260508072418 62 272 2.0 6.0 0.00 0.01 0.01 75 1048.3
20260508072144 62 272 2.0 6.0 0.00 0.01 0.01 74 1048.3
20260508072137 62 272 2.0 6.0 0.00 0.01 0.01 74 1048.3
20260508071802 62 273 2.0 6.0 0.00 0.01 0.01 74 1048.3
20260508071748 62 272 1.0 6.0 0.00 0.01 0.01 74 1048.3
20260508071738 62 272 1.0 6.0 0.00 0.01 0.01 74 1048.3
20260508071502 62 272 1.0 6.0 0.00 0.01 0.01 74 1048.2
20260508071433 62 273 1.0 6.0 0.00 0.01 0.01 75 1048.2
20260508071425 62 274 1.0 3.0 0.00 0.01 0.01 75 1048.2
20260508071100 61 275 1.0 2.0 0.00 0.01 0.01 76 1048.2
20260508071012 61 275 1.0 2.0 0.00 0.01 0.01 76 1048.1
20260508071001 61 276 1.0 2.0 0.00 0.01 0.01 76 1048.1
20260508070903 61 275 1.0 2.0 0.00 0.01 0.01 76 1048.1
20260508070800 61 275 1.0 2.0 0.00 0.01 0.01 77 1048.1
20260508070700 61 275 1.0 2.0 0.00 0.01 0.01 77 1048.1
20260508070600 61 275 1.0 3.0 0.00 0.01 0.01 77 1048.1
20260508070512 60 275 1.0 3.0 0.00 0.01 0.01 77 1048.1
20260508070501 60 275 1.0 3.0 0.00 0.01 0.01 77 1048.1
20260508070358 60 275 1.0 3.0 0.00 0.01 0.01 77 1048.1
20260508070258 60 275 1.0 3.0 0.00 0.01 0.01 77 1048.1
20260508070158 60 275 1.0 3.0 0.00 0.01 0.01 78 1048.0
20260508070138 60 275 2.0 3.0 0.00 0.01 0.01 78 1048.1
20260508070126 60 275 2.0 4.0 0.00 0.01 0.01 78 1048.1
20260508070118 60 275 2.0 4.0 0.00 0.01 0.01 78 1048.1
20260508070104 60 276 2.0 4.0 0.00 0.01 0.01 79 1048.0
20260508070053 60 275 2.0 4.0 0.00 0.01 0.01 79 1048.0
20260508070044 60 275 2.0 4.0 0.00 0.01 0.01 79 1048.0
20260508070025 59 275 2.0 4.0 0.00 0.01 0.01 79 1048.0
20260508070018 59 275 2.0 4.0 0.00 0.01 0.01 80 1048.0
20260508070008 59 275 2.0 4.0 0.00 0.01 0.01 80 1048.0
20260508065746 59 275 2.0 4.0 0.00 0.01 0.01 80 1047.9
20260508065037 58 275 1.0 4.0 0.00 0.01 0.01 81 1047.9
20260508065030 58 275 1.0 4.0 0.00 0.01 0.01 82 1047.9
20260508065004 58 275 1.0 4.0 0.00 0.01 0.01 82 1047.9
20260508064511 58 275 1.0 3.0 0.00 0.01 0.01 83 1048.0
20260508064501 57 275 1.0 3.0 0.00 0.01 0.01 84 1047.9
20260508064448 57 275 1.0 3.0 0.00 0.01 0.01 84 1048.0
20260508064436 57 275 2.0 3.0 0.00 0.01 0.01 85 1047.9
20260508064426 57 275 2.0 3.0 0.00 0.01 0.01 85 1047.9
20260508064200 56 275 2.0 3.0 0.00 0.01 0.01 85 1047.9
20260508064149 56 275 2.0 3.0 0.00 0.01 0.01 85 1047.9
20260508064142 56 275 2.0 3.0 0.00 0.01 0.01 85 1047.9
20260508064131 56 276 2.0 3.0 0.00 0.01 0.01 86 1047.9
20260508064122 56 275 1.0 3.0 0.00 0.01 0.01 86 1047.9
20260508064112 56 276 2.0 3.0 0.00 0.01 0.01 86 1047.9
20260508063839 56 276 2.0 4.0 0.00 0.01 0.01 86 1047.9
20260508063831 55 275 2.0 4.0 0.00 0.01 0.01 86 1047.9
20260508063605 55 275 1.0 4.0 0.00 0.01 0.01 86 1047.9
20260508063338 55 275 1.0 4.0 0.00 0.01 0.01 87 1047.8
20260508062543 54 275 1.0 4.0 0.00 0.01 0.01 87 1047.8
20260508062508 54 275 1.0 4.0 0.00 0.01 0.01 87 1047.8
20260508062444 54 275 1.0 4.0 0.00 0.01 0.01 87 1047.8
20260508062344 54 274 1.0 3.0 0.00 0.01 0.01 87 1047.8
20260508062326 54 274 1.0 3.0 0.00 0.01 0.01 88 1047.8
20260508062320 54 275 2.0 3.0 0.00 0.01 0.01 88 1047.8
20260508062044 54 274 2.0 3.0 0.00 0.01 0.01 88 1047.8
20260508062037 54 275 2.0 3.0 0.00 0.01 0.01 88 1047.8
20260508062015 54 274 2.0 3.0 0.00 0.01 0.01 88 1047.8
20260508061640 53 275 2.0 3.0 0.00 0.01 0.01 89 1047.8
20260508061541 53 274 2.0 3.0 0.00 0.01 0.01 89 1047.8
20260508061505 53 274 2.0 3.0 0.00 0.01 0.01 89 1047.8
20260508061440 53 274 2.0 3.0 0.00 0.01 0.01 89 1047.8
20260508061340 53 274 2.0 3.0 0.00 0.01 0.01 90 1047.7
20260508061240 53 274 2.0 4.0 0.00 0.01 0.01 90 1047.7
20260508061140 53 274 2.0 4.0 0.00 0.01 0.01 90 1047.7
20260508061126 53 275 2.0 4.0 0.00 0.01 0.01 90 1047.8
20260508061117 52 274 2.0 4.0 0.00 0.01 0.01 90 1047.8
20260508061110 52 274 2.0 4.0 0.00 0.01 0.01 90 1047.8
20260508060742 52 274 2.0 4.0 0.00 0.01 0.01 90 1047.8
20260508060640 52 274 2.0 4.0 0.00 0.01 0.01 90 1047.9
20260508060616 52 274 3.0 4.0 0.00 0.01 0.01 90 1047.8
20260508060602 52 275 3.0 4.0 0.00 0.01 0.01 90 1047.7
20260508060248 51 274 3.0 6.0 0.00 0.01 0.01 91 1047.7
20260508060240 51 274 3.0 6.0 0.00 0.01 0.01 91 1047.7
20260508060225 51 274 3.0 6.0 0.00 0.01 0.01 91 1047.7
20260508055940 51 275 3.0 6.0 0.00 0.01 0.01 91 1047.7
20260508055909 51 275 3.0 6.0 0.00 0.01 0.01 91 1047.7
20260508055901 51 274 3.0 6.0 0.00 0.01 0.01 91 1047.7
20260508055541 51 274 3.0 6.0 0.00 0.01 0.01 91 1047.7
20260508055504 51 275 3.0 6.0 0.00 0.01 0.01 91 1047.7
20260508055440 51 274 3.0 6.0 0.00 0.01 0.01 91 1047.7
20260508055340 50 274 3.0 6.0 0.00 0.01 0.01 91 1047.7
20260508055311 50 274 3.0 6.0 0.00 0.01 0.01 91 1047.7
20260508055306 50 274 3.0 6.0 0.00 0.01 0.01 91 1047.7
20260508055244 50 274 3.0 6.0 0.00 0.01 0.01 92 1047.7
20260508055012 50 275 3.0 6.0 0.00 0.01 0.01 91 1047.8
20260508055003 50 274 3.0 6.0 0.00 0.01 0.01 91 1047.7
20260508054951 50 275 3.0 6.0 0.00 0.01 0.01 92 1047.7
20260508054930 50 274 3.0 7.0 0.00 0.01 0.01 92 1047.7
20260508054700 49 275 3.0 7.0 0.00 0.01 0.01 92 1047.8
20260508054336 49 274 4.0 7.0 0.00 0.01 0.01 92 1047.7
20260508054236 49 275 4.0 7.0 0.00 0.01 0.01 92 1047.7
20260508054136 49 275 4.0 7.0 0.00 0.01 0.01 92 1047.7
20260508054039 49 274 4.0 7.0 0.00 0.01 0.01 92 1047.7
20260508054004 49 274 4.0 7.0 0.00 0.01 0.01 92 1047.7
20260508053936 49 275 4.0 7.0 0.00 0.01 0.01 92 1047.8
20260508053836 49 274 3.0 7.0 0.00 0.01 0.01 92 1047.8
20260508053815 49 274 3.0 7.0 0.00 0.01 0.01 92 1047.9
20260508053807 48 273 3.0 7.0 0.00 0.01 0.01 92 1047.9
20260508053511 48 272 3.0 7.0 0.00 0.01 0.01 92 1047.9
20260508053436 48 272 3.0 7.0 0.00 0.01 0.01 92 1047.9
20260508053336 48 272 3.0 7.0 0.00 0.01 0.01 92 1047.9
20260508053309 48 272 2.0 4.0 0.00 0.01 0.01 92 1047.9
20260508053301 48 272 2.0 4.0 0.00 0.01 0.01 92 1047.9
20260508053005 47 271 2.0 4.0 0.00 0.01 0.01 92 1047.9
20260508052938 47 272 2.0 4.0 0.00 0.01 0.01 92 1047.9
20260508052836 47 272 3.0 4.0 0.00 0.01 0.01 91 1047.9
20260508052736 47 272 3.0 6.0 0.00 0.01 0.01 91 1047.9
20260508052718 47 271 3.0 6.0 0.00 0.01 0.01 91 1047.9
20260508052656 47 272 3.0 6.0 0.00 0.01 0.01 91 1047.8
20260508052336 47 272 3.0 6.0 0.00 0.01 0.01 91 1047.9
20260508052236 47 271 3.0 6.0 0.00 0.01 0.01 91 1047.8
20260508052140 47 271 3.0 6.0 0.00 0.01 0.01 91 1047.8
20260508052037 47 272 3.0 6.0 0.00 0.01 0.01 91 1047.8
20260508052006 47 272 3.0 6.0 0.00 0.01 0.01 91 1047.8
20260508051936 47 272 3.0 6.0 0.00 0.01 0.01 91 1047.8
20260508051916 47 272 3.0 6.0 0.00 0.01 0.01 91 1047.8
20260508051907 47 272 3.0 6.0 0.00 0.01 0.01 91 1047.8
20260508051608 47 271 3.0 4.0 0.00 0.01 0.01 91 1047.8
20260508051601 47 271 3.0 4.0 0.00 0.01 0.01 91 1047.8
20260508051236 47 271 2.0 4.0 0.00 0.01 0.01 91 1047.8
20260508051135 47 271 2.0 4.0 0.00 0.01 0.01 91 1047.8
20260508051037 47 271 2.0 4.0 0.00 0.01 0.01 91 1047.8
20260508051006 47 271 2.0 4.0 0.00 0.01 0.01 91 1047.8
20260508050938 47 271 2.0 4.0 0.00 0.01 0.01 91 1047.8
20260508050903 47 271 2.0 4.0 0.00 0.01 0.01 91 1047.8
20260508050853 47 271 2.0 3.0 0.00 0.01 0.01 91 1047.8
20260508050504 47 271 2.0 3.0 0.00 0.01 0.01 91 1047.7
20260508050432 47 271 2.0 3.0 0.00 0.01 0.01 91 1047.7
20260508050331 47 271 2.0 3.0 0.00 0.01 0.01 91 1047.7
20260508050242 47 271 2.0 4.0 0.00 0.01 0.01 90 1047.7
20260508050232 47 271 2.0 4.0 0.00 0.01 0.01 90 1047.7
20260508050211 47 271 2.0 4.0 0.00 0.01 0.01 90 1047.7
20260508045944 47 271 2.0 4.0 0.00 0.01 0.01 90 1047.7
20260508045621 47 271 2.0 4.0 0.00 0.01 0.01 91 1047.6
20260508045520 48 271 3.0 4.0 0.00 0.01 0.01 90 1047.6
20260508045501 48 270 3.0 4.0 0.00 0.01 0.01 90 1047.6
20260508045421 48 270 3.0 4.0 0.00 0.01 0.01 90 1047.6
20260508045320 48 271 3.0 4.0 0.00 0.01 0.01 90 1047.7
20260508045243 48 270 3.0 4.0 0.00 0.01 0.01 91 1047.6
20260508045234 48 271 2.0 4.0 0.00 0.01 0.01 91 1047.6
20260508045217 48 271 2.0 4.0 0.00 0.01 0.01 91 1047.6
20260508044917 48 271 2.0 4.0 0.00 0.01 0.01 91 1047.6
20260508044815 48 270 2.0 4.0 0.00 0.01 0.01 91 1047.6
20260508044715 48 270 2.0 4.0 0.00 0.01 0.01 91 1047.6
20260508044612 48 270 2.0 4.0 0.00 0.01 0.01 91 1047.5
20260508044547 48 270 1.0 4.0 0.00 0.01 0.01 90 1047.5
20260508044529 48 270 1.0 4.0 0.00 0.01 0.01 90 1047.5
20260508044515 48 270 1.0 4.0 0.00 0.01 0.01 90 1047.4
20260508044507 48 270 1.0 3.0 0.00 0.01 0.01 90 1047.4
20260508044006 48 270 0.0 2.0 0.00 0.01 0.01 90 1047.4
20260508043947 48 270 0.0 2.0 0.00 0.01 0.01 90 1047.4
20260508043720 48 270 0.0 2.0 0.00 0.01 0.01 91 1047.4
20260508043706 48 270 1.0 2.0 0.00 0.01 0.01 91 1047.4
20260508043649 48 270 1.0 2.0 0.00 0.01 0.01 91 1047.4
20260508043416 48 270 1.0 3.0 0.00 0.01 0.01 91 1047.4
20260508043406 49 270 1.0 3.0 0.00 0.01 0.01 91 1047.4
20260508043143 49 271 1.0 3.0 0.00 0.01 0.01 91 1047.3
20260508043132 49 270 1.0 3.0 0.00 0.01 0.01 91 1047.3
20260508043122 49 270 1.0 3.0 0.00 0.01 0.01 91 1047.3
20260508043114 49 270 1.0 3.0 0.00 0.01 0.01 91 1047.3
20260508042847 49 270 1.0 4.0 0.00 0.01 0.01 91 1047.3
20260508042831 49 270 1.0 4.0 0.00 0.01 0.01 91 1047.3
20260508042821 49 270 1.0 4.0 0.00 0.01 0.01 91 1047.3
20260508042328 49 270 2.0 4.0 0.00 0.01 0.01 91 1047.2
20260508042055 49 270 2.0 4.0 0.01 0.01 0.01 91 1047.3
20260508041827 49 270 2.0 4.0 0.01 0.01 0.01 91 1047.3
20260508041815 49 270 2.0 4.0 0.01 0.01 0.01 91 1047.2
20260508041750 49 270 3.0 4.0 0.01 0.01 0.01 90 1047.3
20260508041528 49 270 3.0 6.0 0.01 0.01 0.01 90 1047.2
20260508041203 49 270 3.0 6.0 0.01 0.01 0.01 90 1047.2
20260508041103 49 270 3.0 6.0 0.01 0.01 0.01 90 1047.2
20260508041023 49 270 3.0 6.0 0.01 0.01 0.01 90 1047.2
20260508041002 49 270 3.0 6.0 0.01 0.01 0.01 90 1047.2
20260508040954 49 270 3.0 6.0 0.01 0.01 0.01 90 1047.2
20260508040946 49 270 3.0 6.0 0.01 0.01 0.01 90 1047.2
20260508040933 49 270 3.0 6.0 0.01 0.01 0.01 90 1047.2
20260508040652 49 270 2.0 4.0 0.01 0.01 0.01 91 1047.2
20260508040645 49 270 2.0 4.0 0.01 0.01 0.01 91 1047.2
20260508040418 49 270 2.0 4.0 0.01 0.01 0.01 91 1047.1
20260508035901 49 270 2.0 4.0 0.01 0.01 0.01 91 1047.2
20260508035835 49 271 2.0 4.0 0.01 0.01 0.01 91 1047.2
20260508035826 49 270 2.0 4.0 0.01 0.01 0.01 91 1047.2
20260508035450 49 270 2.0 4.0 0.01 0.01 0.01 91 1047.2
20260508035434 49 270 2.0 4.0 0.01 0.01 0.01 91 1047.1
20260508035351 49 271 2.0 4.0 0.01 0.01 0.01 91 1047.1
20260508035312 49 270 2.0 4.0 0.01 0.01 0.01 91 1047.1
20260508035306 49 270 2.0 4.0 0.01 0.01 0.01 91 1047.2
20260508034945 49 270 2.0 4.0 0.01 0.01 0.01 91 1047.1
20260508034933 49 271 2.0 6.0 0.01 0.01 0.01 91 1047.1
20260508034844 49 271 2.0 6.0 0.01 0.01 0.01 91 1047.1
20260508034745 49 271 3.0 6.0 0.01 0.01 0.01 91 1047.1
20260508034644 49 271 2.0 6.0 0.01 0.01 0.01 91 1047.1
20260508034544 49 271 2.0 6.0 0.01 0.01 0.01 91 1047.1
20260508034512 49 271 2.0 6.0 0.01 0.01 0.01 91 1047.1
20260508034459 49 272 2.0 6.0 0.01 0.01 0.01 91 1047.1
20260508034136 49 271 2.0 6.0 0.01 0.01 0.01 91 1047.0
20260508034118 49 271 2.0 6.0 0.01 0.01 0.01 91 1047.1
20260508034102 49 271 2.0 6.0 0.01 0.01 0.01 91 1047.1
20260508033736 49 270 2.0 4.0 0.01 0.01 0.01 91 1047.0
20260508033636 49 270 2.0 6.0 0.01 0.01 0.01 91 1047.1
20260508033536 49 270 2.0 6.0 0.01 0.01 0.01 91 1047.1
20260508033432 49 270 3.0 6.0 0.01 0.01 0.01 91 1047.1
20260508033334 49 270 3.0 6.0 0.01 0.01 0.01 91 1047.1
20260508033233 49 270 3.0 6.0 0.01 0.01 0.01 91 1047.2
20260508033132 49 270 2.0 6.0 0.01 0.01 0.01 91 1047.1
20260508033033 49 270 2.0 6.0 0.01 0.01 0.01 91 1047.1
20260508032934 49 270 2.0 6.0 0.01 0.01 0.01 91 1047.2
20260508032830 49 270 2.0 6.0 0.01 0.01 0.01 91 1047.2
20260508032730 49 270 2.0 6.0 0.01 0.01 0.01 91 1047.2
20260508032708 49 270 2.0 4.0 0.01 0.01 0.01 91 1047.2
20260508032700 49 270 2.0 4.0 0.01 0.01 0.01 91 1047.2
20260508032432 49 270 2.0 4.0 0.01 0.01 0.01 91 1047.2
20260508032327 49 270 2.0 4.0 0.01 0.01 0.01 91 1047.2
20260508032225 49 270 2.0 4.0 0.01 0.01 0.01 91 1047.2
20260508032124 49 270 2.0 4.0 0.01 0.01 0.01 91 1047.3
20260508032028 49 270 2.0 4.0 0.01 0.01 0.00 90 1047.2
20260508031935 49 270 2.0 4.0 0.01 0.01 0.00 90 1047.2
20260508031924 49 270 2.0 4.0 0.00 0.00 0.00 90 1047.2
20260508031820 49 270 2.0 4.0 0.00 0.00 0.00 90 1047.2
20260508031719 49 270 2.0 4.0 0.00 0.00 0.00 90 1047.3
20260508031619 49 270 2.0 4.0 0.00 0.00 0.00 90 1047.2
20260508031558 49 270 2.0 4.0 0.00 0.00 0.00 90 1047.3
20260508031540 49 270 2.0 4.0 0.00 0.00 0.00 90 1047.2
20260508031533 49 270 2.0 4.0 0.00 0.00 0.00 90 1047.3
20260508031525 49 270 2.0 4.0 0.00 0.00 0.00 90 1047.3
20260508031516 49 270 2.0 4.0 0.00 0.00 0.00 90 1047.3
20260508031029 49 270 2.0 3.0 0.00 0.00 0.00 91 1047.3
20260508031009 50 270 2.0 3.0 0.00 0.00 0.00 90 1047.3
20260508030741 50 270 2.0 4.0 0.00 0.00 0.00 90 1047.3
20260508030729 50 270 2.0 4.0 0.00 0.00 0.00 90 1047.3
20260508030708 50 270 2.0 4.0 0.00 0.00 0.00 90 1047.4
20260508030700 50 270 2.0 4.0 0.00 0.00 0.00 90 1047.3
20260508030435 50 270 2.0 4.0 0.00 0.00 0.00 90 1047.3
20260508030424 50 270 2.0 4.0 0.00 0.00 0.00 90 1047.3
20260508030417 50 270 2.0 4.0 0.00 0.00 0.00 90 1047.4
20260508030404 50 270 2.0 4.0 0.00 0.00 0.00 90 1047.4
20260508030356 50 270 2.0 4.0 0.00 0.00 0.00 90 1047.3
20260508030348 50 270 2.0 4.0 0.00 0.00 0.00 90 1047.3
20260508030340 50 270 1.0 3.0 0.00 0.00 0.00 90 1047.3
20260508025856 50 270 1.0 3.0 0.00 0.00 0.00 90 1047.4
20260508025148 50 270 2.0 4.0 0.00 0.00 0.00 90 1047.3
20260508024850 50 270 2.0 4.0 0.00 0.00 0.00 90 1047.4
20260508024751 50 270 2.0 4.0 0.00 0.00 0.00 90 1047.3
20260508024650 50 270 2.0 4.0 0.00 0.00 0.00 90 1047.3
20260508024551 50 270 2.0 4.0 0.00 0.00 0.00 90 1047.3
20260508024436 50 270 2.0 4.0 0.00 0.00 0.00 90 1047.3
20260508024416 50 270 2.0 4.0 0.00 0.00 0.00 90 1047.3
20260508024408 50 270 2.0 4.0 0.00 0.00 0.00 90 1047.3
20260508024120 50 272 1.0 4.0 0.00 0.00 0.00 91 1047.3
20260508024056 50 271 1.0 4.0 0.00 0.00 0.00 91 1047.4
20260508024048 50 271 1.0 4.0 0.00 0.00 0.00 91 1047.3
20260508024034 50 272 1.0 3.0 0.00 0.00 0.00 91 1047.3
20260508023808 50 272 1.0 3.0 0.00 0.00 0.00 91 1047.3
20260508023756 50 272 1.0 3.0 0.00 0.00 0.00 91 1047.3
20260508023741 50 272 1.0 2.0 0.00 0.00 0.00 91 1047.3
20260508023723 50 272 1.0 2.0 0.00 0.00 0.00 91 1047.4
20260508023456 50 272 1.0 3.0 0.00 0.00 0.00 91 1047.4
20260508023217 50 272 1.0 3.0 0.00 0.00 0.00 90 1047.3
20260508022638 50 271 1.0 3.0 0.00 0.00 0.00 91 1047.4
20260508022539 50 272 1.0 3.0 0.00 0.00 0.00 91 1047.4
20260508022435 50 272 1.0 3.0 0.00 0.00 0.00 91 1047.4
20260508022422 50 272 1.0 3.0 0.00 0.00 0.00 91 1047.4
20260508022411 50 272 1.0 3.0 0.00 0.00 0.00 91 1047.5
20260508022142 50 272 1.0 3.0 0.00 0.00 0.00 91 1047.4
20260508022123 50 271 1.0 3.0 0.00 0.00 0.00 91 1047.5
20260508022110 50 272 1.0 3.0 0.00 0.00 0.00 91 1047.5
20260508021530 51 272 1.0 3.0 0.00 0.00 0.00 91 1047.5
20260508021433 51 272 1.0 3.0 0.00 0.00 0.00 91 1047.5
20260508021330 51 272 1.0 3.0 0.00 0.00 0.00 91 1047.5
20260508021230 51 272 1.0 3.0 0.00 0.00 0.00 91 1047.5
20260508021130 51 272 1.0 3.0 0.00 0.00 0.00 91 1047.5
20260508021030 51 272 1.0 3.0 0.00 0.00 0.00 90 1047.5
20260508020934 51 272 1.0 3.0 0.00 0.00 0.00 90 1047.5
20260508020831 51 272 1.0 3.0 0.00 0.00 0.00 90 1047.5
20260508020821 51 272 1.0 3.0 0.00 0.00 0.00 90 1047.5
20260508020815 51 272 2.0 3.0 0.00 0.00 0.00 90 1047.5
20260508020807 51 272 2.0 3.0 0.00 0.00 0.00 90 1047.5
20260508020747 51 272 2.0 3.0 0.00 0.00 0.00 90 1047.5
20260508020733 51 272 2.0 3.0 0.00 0.00 0.00 90 1047.5
20260508015925 51 272 2.0 3.0 0.00 0.00 0.00 90 1047.6
20260508015824 51 272 1.0 6.0 0.00 0.00 0.00 90 1047.5
20260508015725 51 272 1.0 6.0 0.00 0.00 0.00 90 1047.6
20260508015622 51 272 1.0 6.0 0.00 0.00 0.00 90 1047.6
20260508015606 51 272 1.0 6.0 0.00 0.00 0.00 90 1047.6
20260508015545 51 272 1.0 6.0 0.00 0.00 0.00 90 1047.6
20260508015218 51 272 1.0 6.0 0.00 0.00 0.00 90 1047.7
20260508015116 51 272 2.0 6.0 0.00 0.00 0.00 90 1047.6
20260508015012 51 272 2.0 6.0 0.00 0.00 0.00 90 1047.7
20260508014912 51 271 2.0 4.0 0.00 0.00 0.00 90 1047.7
20260508014814 51 270 2.0 6.0 0.00 0.00 0.00 90 1047.7
20260508014713 51 271 2.0 6.0 0.00 0.00 0.00 90 1047.7
20260508014612 51 271 2.0 6.0 0.00 0.00 0.00 90 1047.7
20260508014510 51 270 2.0 6.0 0.00 0.00 0.00 90 1047.7
20260508014410 51 271 2.0 6.0 0.00 0.00 0.00 90 1047.8
20260508014314 51 271 2.0 6.0 0.00 0.00 0.00 90 1047.8
20260508014211 51 271 2.0 6.0 0.00 0.00 0.00 90 1047.7
20260508014116 51 271 2.0 6.0 0.00 0.00 0.00 90 1047.8
20260508014008 51 271 2.0 6.0 0.00 0.00 0.00 90 1047.8
20260508013932 51 271 2.0 6.0 0.00 0.00 0.00 90 1047.7
20260508013909 51 270 2.0 6.0 0.00 0.00 0.00 90 1047.7
20260508013807 51 271 2.0 4.0 0.00 0.00 0.00 90 1047.7
20260508013736 51 271 2.0 4.0 0.00 0.00 0.00 90 1047.7
20260508013728 51 271 2.0 4.0 0.00 0.00 0.00 90 1047.7
20260508013433 51 270 2.0 4.0 0.00 0.00 0.00 90 1047.7
20260508013413 51 271 2.0 4.0 0.00 0.00 0.00 90 1047.7
20260508013310 51 270 2.0 4.0 0.00 0.00 0.00 90 1047.7
20260508013203 51 271 2.0 4.0 0.00 0.00 0.00 90 1047.7
20260508013104 51 271 2.0 4.0 0.00 0.00 0.00 90 1047.8
20260508013002 51 271 1.0 4.0 0.00 0.00 0.00 90 1047.8
20260508012934 51 272 1.0 4.0 0.00 0.00 0.00 90 1047.8
20260508012903 51 271 1.0 4.0 0.00 0.00 0.00 90 1047.8
20260508012802 51 271 2.0 4.0 0.00 0.00 0.00 90 1047.9
20260508012703 51 271 2.0 4.0 0.00 0.00 0.00 90 1047.8
20260508012623 51 271 1.0 4.0 0.00 0.00 0.00 90 1047.9
20260508012615 51 272 1.0 4.0 0.00 0.00 0.00 90 1047.9
20260508012603 51 271 1.0 4.0 0.00 0.00 0.00 90 1047.9
20260508012552 52 271 1.0 4.0 0.00 0.00 0.00 90 1047.9
20260508012542 52 271 1.0 4.0 0.00 0.00 0.00 90 1047.9
20260508012002 52 271 1.0 3.0 0.00 0.00 0.00 90 1047.9
20260508011904 52 271 1.0 3.0 0.00 0.00 0.00 90 1048.0
20260508011802 52 271 1.0 3.0 0.00 0.00 0.00 90 1048.0
20260508011751 52 271 1.0 3.0 0.00 0.00 0.00 90 1048.0
20260508011743 52 271 2.0 3.0 0.00 0.00 0.00 90 1048.0
20260508011731 52 271 2.0 3.0 0.00 0.00 0.00 90 1048.0
20260508011504 52 271 2.0 3.0 0.00 0.00 0.00 90 1048.0
20260508011455 52 272 2.0 3.0 0.00 0.00 0.00 90 1048.1
20260508011447 52 271 2.0 4.0 0.00 0.00 0.00 90 1048.1
20260508011436 52 271 2.0 4.0 0.00 0.00 0.00 90 1048.0
20260508011423 52 271 2.0 4.0 0.00 0.00 0.00 90 1048.1
20260508011406 52 271 2.0 4.0 0.00 0.00 0.00 90 1048.1
20260508011144 52 272 2.0 4.0 0.00 0.00 0.00 90 1048.1
20260508011136 52 271 2.0 4.0 0.00 0.00 0.00 90 1048.1
20260508011123 52 271 2.0 4.0 0.00 0.00 0.00 90 1048.1
20260508011108 52 271 2.0 4.0 0.00 0.00 0.00 90 1048.1
20260508011044 52 271 2.0 4.0 0.00 0.00 0.00 90 1048.1
20260508010551 53 271 1.0 4.0 0.00 0.00 0.00 90 1048.1
20260508010543 53 271 2.0 4.0 0.00 0.00 0.00 90 1048.1
20260508005834 53 272 2.0 6.0 0.00 0.00 0.00 90 1048.1
20260508005606 53 271 2.0 6.0 0.00 0.00 0.00 90 1048.2
20260508005550 53 271 2.0 6.0 0.00 0.00 0.00 90 1048.2
20260508005326 53 271 2.0 6.0 0.00 0.00 0.00 90 1048.2
20260508005056 53 271 2.0 6.0 0.00 0.00 0.00 90 1048.2
20260508005048 53 271 2.0 7.0 0.00 0.00 0.00 90 1048.2
20260508005035 53 271 2.0 7.0 0.00 0.00 0.00 90 1048.2
20260508004811 53 266 2.0 7.0 0.00 0.00 0.00 90 1048.2
20260508004524 53 269 2.0 7.0 0.00 0.00 0.00 90 1048.2
20260508004517 53 268 2.0 7.0 0.00 0.00 0.00 90 1048.2
20260508004506 53 269 2.0 7.0 0.00 0.00 0.00 90 1048.2
20260508004210 53 269 2.0 7.0 0.00 0.00 0.00 90 1048.2
20260508004203 53 269 1.0 7.0 0.00 0.00 0.00 90 1048.2
20260508003931 53 292 1.0 5.0 0.00 0.00 0.00 90 1048.2
20260508003838 53 292 1.0 5.0 0.00 0.00 0.00 90 1048.2
20260508003822 53 292 1.0 5.0 0.00 0.00 0.00 90 1048.1
20260508003815 53 291 1.0 5.0 0.00 0.00 0.00 90 1048.2
20260508003754 53 297 1.0 4.0 0.00 0.00 0.00 90 1048.1
20260508003744 53 297 1.0 4.0 0.00 0.00 0.00 90 1048.2
20260508003517 53 223 1.0 3.0 0.00 0.00 0.00 90 1048.2
20260508003136 53 223 1.0 4.0 0.00 0.00 0.00 90 1048.3
20260508003119 53 222 1.0 4.0 0.00 0.00 0.00 90 1048.2
20260508003108 53 223 1.0 4.0 0.00 0.00 0.00 90 1048.3
20260508003102 53 222 1.0 4.0 0.00 0.00 0.00 90 1048.3
20260508003046 53 223 1.0 4.0 0.00 0.00 0.00 90 1048.3
20260508003037 53 223 1.0 4.0 0.00 0.00 0.00 90 1048.3
20260508003032 53 223 1.0 4.0 0.00 0.00 0.00 90 1048.3
20260508003022 53 223 1.0 4.0 0.00 0.00 0.00 90 1048.3
20260508002754 53 223 1.0 4.0 0.00 0.00 0.00 90 1048.3
20260508002519 53 222 1.0 4.0 0.00 0.00 0.00 90 1048.3
20260508002510 53 222 1.0 4.0 0.00 0.00 0.00 90 1048.3
20260508002225 53 222 1.0 4.0 0.00 0.00 0.00 90 1048.3
20260508002217 53 222 1.0 4.0 0.00 0.00 0.00 90 1048.3
20260508001950 53 222 1.0 4.0 0.00 0.00 0.00 90 1048.3
20260508001943 53 222 1.0 4.0 0.00 0.00 0.00 90 1048.3
20260508001927 53 222 1.0 4.0 0.00 0.00 0.00 90 1048.3
20260508001918 53 222 1.0 4.0 0.00 0.00 0.00 90 1048.3
20260508001910 53 214 2.0 4.0 0.00 0.00 0.00 90 1048.3
20260508001901 53 214 1.0 4.0 0.00 0.00 0.00 90 1048.4
20260508000934 53 215 1.0 4.0 0.00 0.00 0.00 90 1048.4
20260508000712 53 214 1.0 4.0 0.00 0.00 0.00 90 1048.3
20260508000700 53 214 1.0 4.0 0.00 0.00 0.00 90 1048.4
20260508000653 53 215 1.0 4.0 0.00 0.00 0.00 90 1048.4
20260508000644 53 214 1.0 4.0 0.00 0.00 0.00 90 1048.4
20260508000404 53 215 1.0 4.0 0.00 0.00 0.00 90 1048.4
20260508000357 53 215 1.0 4.0 0.00 0.00 0.00 90 1048.4
20260507235812 53 215 2.0 4.0 0.00 0.00 0.00 90 1048.4
20260507235712 53 215 2.0 4.0 0.00 0.00 0.00 90 1048.4
20260507235610 53 214 2.0 4.0 0.00 0.00 0.00 90 1048.4
20260507235555 53 215 2.0 4.0 0.00 0.00 0.00 90 1048.4
20260507235534 53 215 2.0 4.0 0.00 0.00 0.00 90 1048.5
20260507235207 53 215 2.0 4.0 0.00 0.00 0.00 90 1048.5
20260507235103 53 215 2.0 4.0 0.00 0.00 0.00 90 1048.5
20260507235004 53 215 2.0 4.0 0.00 0.00 0.00 90 1048.5
20260507234933 53 215 2.0 4.0 0.00 0.00 0.00 90 1048.5
20260507234905 53 214 2.0 4.0 0.00 0.00 0.00 90 1048.5
20260507234803 53 214 2.0 4.0 0.00 0.00 0.00 90 1048.5
20260507234703 53 215 2.0 4.0 0.00 0.00 0.00 90 1048.5
20260507234604 53 215 2.0 4.0 0.00 0.00 0.00 90 1048.5
20260507234503 53 215 2.0 4.0 0.00 0.00 0.00 90 1048.5
20260507234433 53 215 2.0 4.0 0.00 0.00 0.00 90 1048.5
20260507234404 53 214 2.0 4.0 0.00 0.00 0.00 90 1048.5
20260507234306 53 215 2.0 4.0 0.00 0.00 0.00 90 1048.5
20260507234215 53 215 2.0 4.0 0.00 0.00 0.00 90 1048.5
20260507234206 53 214 2.0 4.0 0.00 0.00 0.00 90 1048.5
20260507234154 53 215 2.0 4.0 0.00 0.00 0.00 90 1048.5
20260507233905 53 215 2.0 4.0 0.00 0.00 0.00 90 1048.5
20260507233803 53 215 2.0 4.0 0.00 0.00 0.00 90 1048.6
20260507233706 53 215 2.0 4.0 0.00 0.00 0.00 90 1048.6
20260507233604 53 215 2.0 4.0 0.00 0.00 0.00 90 1048.6
20260507233503 53 214 2.0 4.0 0.00 0.00 0.00 90 1048.6
20260507233434 53 215 2.0 4.0 0.00 0.00 0.00 90 1048.6
20260507233404 53 214 2.0 4.0 0.00 0.00 0.00 90 1048.6
20260507233303 53 215 2.0 4.0 0.00 0.00 0.00 90 1048.7
20260507233210 53 215 2.0 3.0 0.00 0.00 0.00 90 1048.7
20260507233104 53 214 2.0 3.0 0.00 0.00 0.00 90 1048.7
20260507233003 53 214 2.0 3.0 0.00 0.00 0.00 90 1048.7
20260507232905 53 214 1.0 3.0 0.00 0.00 0.00 90 1048.7
20260507232803 53 214 1.0 3.0 0.00 0.00 0.00 90 1048.7
20260507232703 53 214 1.0 3.0 0.00 0.00 0.00 90 1048.8
20260507232611 53 215 1.0 3.0 0.00 0.00 0.00 90 1048.8
20260507232503 53 215 1.0 3.0 0.00 0.00 0.00 90 1048.8
20260507232432 53 215 1.0 3.0 0.00 0.00 0.00 90 1048.8
20260507232405 53 214 1.0 3.0 0.00 0.00 0.00 90 1048.8
20260507232306 53 214 2.0 3.0 0.00 0.00 0.00 90 1048.8
20260507232203 53 215 2.0 3.0 0.00 0.00 0.00 90 1048.8
20260507232101 53 215 1.0 3.0 0.00 0.00 0.00 90 1048.8
20260507231932 54 215 1.0 3.0 0.00 0.00 0.00 90 1048.8
20260507231859 54 214 1.0 3.0 0.00 0.00 0.00 90 1048.8
20260507231759 54 215 1.0 3.0 0.00 0.00 0.00 90 1048.8
20260507231657 54 215 1.0 3.0 0.00 0.00 0.00 90 1048.8
20260507231551 54 214 1.0 3.0 0.00 0.00 0.00 90 1048.8
20260507231451 54 215 1.0 3.0 0.00 0.00 0.00 90 1048.8
20260507231431 54 214 1.0 3.0 0.00 0.00 0.00 90 1048.8
20260507231352 54 215 1.0 3.0 0.00 0.00 0.00 90 1048.8
20260507231251 54 215 1.0 3.0 0.00 0.00 0.00 90 1048.8
20260507231151 54 215 1.0 3.0 0.00 0.00 0.00 90 1048.8
20260507231126 54 215 2.0 3.0 0.00 0.00 0.00 90 1048.8
20260507231105 54 215 2.0 3.0 0.00 0.00 0.00 90 1049.0
20260507230741 54 214 2.0 3.0 0.00 0.00 0.00 90 1049.0
20260507230641 54 215 2.0 3.0 0.00 0.00 0.00 90 1049.0
20260507230620 54 215 2.0 3.0 0.00 0.00 0.00 90 1049.0
20260507230601 54 215 2.0 3.0 0.00 0.00 0.00 90 1049.1
20260507230238 54 215 2.0 3.0 0.00 0.00 0.00 90 1049.0
20260507230224 54 215 2.0 3.0 0.00 0.00 0.00 90 1049.0
20260507230215 54 214 2.0 3.0 0.00 0.00 0.00 90 1049.0
20260507225931 54 214 2.0 3.0 0.00 0.00 0.00 90 1049.0
20260507225832 54 215 2.0 3.0 0.00 0.00 0.00 90 1049.0
20260507225803 54 214 2.0 3.0 0.00 0.00 0.00 90 1049.0
20260507225755 54 215 2.0 3.0 0.00 0.00 0.00 90 1049.0
20260507225436 54 215 2.0 3.0 0.00 0.00 0.00 90 1049.0
20260507225331 54 215 2.0 3.0 0.00 0.00 0.00 90 1049.0
20260507225232 54 214 1.0 3.0 0.00 0.00 0.00 90 1049.0
20260507225131 54 215 1.0 3.0 0.00 0.00 0.00 90 1049.0
20260507225032 54 215 1.0 3.0 0.00 0.00 0.00 90 1049.0
20260507224936 54 215 1.0 3.0 0.00 0.00 0.00 90 1049.0
20260507224845 54 214 1.0 3.0 0.00 0.00 0.00 90 1049.0
20260507224839 54 214 1.0 2.0 0.00 0.00 0.00 90 1049.0
20260507224826 54 215 1.0 2.0 0.00 0.00 0.00 90 1049.0
20260507224555 54 215 1.0 2.0 0.00 0.00 0.00 90 1049.0
20260507224230 54 214 2.0 3.0 0.00 0.00 0.00 90 1049.0
20260507224130 54 215 2.0 3.0 0.00 0.00 0.00 90 1049.0
20260507224034 54 215 2.0 3.0 0.00 0.00 0.00 90 1049.0
20260507223933 54 215 2.0 3.0 0.00 0.00 0.00 90 1049.1
20260507223831 54 215 1.0 3.0 0.00 0.00 0.00 90 1049.1
20260507223808 54 215 1.0 3.0 0.00 0.00 0.00 90 1049.1
20260507223801 54 215 1.0 3.0 0.00 0.00 0.00 90 1049.1
20260507223747 54 215 1.0 3.0 0.00 0.00 0.00 90 1049.1
20260507223524 54 214 1.0 3.0 0.00 0.00 0.00 90 1049.1
20260507223511 54 215 1.0 2.0 0.00 0.00 0.00 90 1049.1
20260507223503 54 215 1.0 2.0 0.00 0.00 0.00 90 1049.1
20260507223455 54 214 1.0 2.0 0.00 0.00 0.00 90 1049.1
20260507223222 54 214 1.0 2.0 0.00 0.00 0.00 91 1049.1
20260507222958 54 215 1.0 2.0 0.00 0.00 0.00 91 1049.2
20260507222622 54 215 1.0 2.0 0.00 0.00 0.00 91 1049.2
20260507222522 54 215 1.0 2.0 0.00 0.00 0.00 91 1049.2
20260507222422 54 214 1.0 2.0 0.00 0.00 0.00 91 1049.2
20260507222403 54 215 1.0 2.0 0.00 0.00 0.00 90 1049.2
20260507222357 54 215 1.0 2.0 0.00 0.00 0.00 90 1049.2
20260507222344 54 214 1.0 2.0 0.00 0.00 0.00 90 1049.2
20260507222336 53 214 1.0 2.0 0.00 0.00 0.00 90 1049.3
20260507222102 53 215 1.0 2.0 0.00 0.00 0.00 90 1049.2
20260507222051 53 215 1.0 3.0 0.00 0.00 0.00 90 1049.2
20260507222042 53 214 1.0 3.0 0.00 0.00 0.00 90 1049.1
20260507221809 53 215 1.0 3.0 0.00 0.00 0.00 90 1049.2
20260507221758 54 214 1.0 3.0 0.00 0.00 0.00 90 1049.2
20260507221215 53 215 1.0 3.0 0.00 0.00 0.00 90 1049.2
20260507221116 54 215 1.0 3.0 0.00 0.00 0.00 90 1049.2
20260507221011 54 215 1.0 3.0 0.00 0.00 0.00 90 1049.1
20260507220908 54 215 1.0 3.0 0.00 0.00 0.00 90 1049.2
20260507220808 54 215 1.0 3.0 0.00 0.00 0.00 90 1049.1
20260507220708 54 214 1.0 3.0 0.00 0.00 0.00 90 1049.1
20260507220608 54 214 1.0 3.0 0.00 0.00 0.00 90 1049.1
20260507220506 54 214 1.0 3.0 0.00 0.00 0.00 90 1049.1
20260507220431 54 215 1.0 3.0 0.00 0.00 0.00 90 1049.1
20260507220410 54 214 1.0 3.0 0.00 0.00 0.00 90 1049.1
20260507220306 54 214 2.0 3.0 0.00 0.00 0.00 90 1049.1
20260507220206 54 214 2.0 3.0 0.00 0.00 0.00 90 1049.1
20260507220105 54 215 2.0 3.0 0.00 0.00 0.00 90 1049.1
20260507220008 54 215 2.0 3.0 0.00 0.00 0.00 90 1049.2
20260507215932 54 215 2.0 3.0 0.00 0.00 0.00 90 1049.2
20260507215905 54 214 2.0 3.0 0.00 0.00 0.00 90 1049.2
20260507215804 54 216 2.0 3.0 0.00 0.00 0.00 90 1049.2
20260507215703 54 215 2.0 3.0 0.00 0.00 0.00 90 1049.2
20260507215604 54 215 2.0 3.0 0.00 0.00 0.00 90 1049.2
20260507215504 54 214 2.0 3.0 0.00 0.00 0.00 90 1049.2
20260507215432 54 214 2.0 3.0 0.00 0.00 0.00 90 1049.2
20260507215405 54 215 2.0 3.0 0.00 0.00 0.00 90 1049.2
20260507215307 54 215 2.0 3.0 0.00 0.00 0.00 90 1049.2
20260507215202 54 215 2.0 3.0 0.00 0.00 0.00 90 1049.2
20260507215102 54 215 2.0 3.0 0.00 0.00 0.00 90 1049.3
20260507215002 54 214 2.0 3.0 0.00 0.00 0.00 90 1049.2
20260507214932 54 215 2.0 3.0 0.00 0.00 0.00 90 1049.2
20260507214900 54 215 2.0 3.0 0.00 0.00 0.00 90 1049.2
20260507214759 54 215 2.0 3.0 0.00 0.00 0.00 90 1049.3
20260507214659 54 215 2.0 3.0 0.00 0.00 0.00 90 1049.2
20260507214558 54 214 2.0 3.0 0.00 0.00 0.00 89 1049.3
20260507214458 54 215 2.0 3.0 0.00 0.00 0.00 89 1049.3
20260507214432 54 214 2.0 3.0 0.00 0.00 0.00 89 1049.3
20260507214356 54 215 2.0 3.0 0.00 0.00 0.00 89 1049.3
20260507214256 54 214 2.0 3.0 0.00 0.00 0.00 89 1049.3
20260507214249 54 215 2.0 3.0 0.00 0.00 0.00 89 1049.3
20260507214241 54 215 2.0 3.0 0.00 0.00 0.00 89 1049.3
20260507214233 54 215 2.0 3.0 0.00 0.00 0.00 89 1049.4
20260507214217 54 214 2.0 3.0 0.00 0.00 0.00 89 1049.3
20260507214209 54 214 2.0 3.0 0.00 0.00 0.00 89 1049.3
20260507214156 54 215 2.0 3.0 0.00 0.00 0.00 89 1049.3
20260507214146 54 214 2.0 3.0 0.00 0.00 0.00 89 1049.3
20260507214140 54 215 2.0 3.0 0.00 0.00 0.00 89 1049.3
20260507213655 54 214 2.0 3.0 0.00 0.00 0.00 89 1049.3
20260507213427 54 215 2.0 3.0 0.00 0.00 0.00 89 1049.3
20260507213155 54 214 2.0 3.0 0.00 0.00 0.00 89 1049.3
20260507212849 54 215 2.0 3.0 0.00 0.00 0.00 89 1049.3
20260507212816 54 214 2.0 3.0 0.00 0.00 0.00 89 1049.3
20260507212808 54 214 2.0 3.0 0.00 0.00 0.00 89 1049.3
20260507212757 54 215 2.0 3.0 0.00 0.00 0.00 89 1049.3
20260507212722 54 215 2.0 3.0 0.00 0.00 0.00 89 1049.3
20260507212453 54 215 2.0 3.0 0.00 0.00 0.00 89 1049.3
20260507212447 55 215 2.0 3.0 0.00 0.00 0.00 89 1049.3
20260507212438 55 215 1.0 3.0 0.00 0.00 0.00 89 1049.3
20260507212430 55 216 1.0 3.0 0.00 0.00 0.00 89 1049.3
20260507212202 55 215 1.0 3.0 0.00 0.00 0.00 89 1049.3
20260507211715 55 214 1.0 3.0 0.00 0.00 0.00 89 1049.2
20260507211437 55 215 1.0 4.0 0.00 0.00 0.00 89 1049.2
20260507211356 55 216 1.0 4.0 0.00 0.00 0.00 89 1049.2
20260507211345 55 215 2.0 4.0 0.00 0.00 0.00 89 1049.2
20260507211334 55 215 2.0 4.0 0.00 0.00 0.00 89 1049.2
20260507211101 55 215 2.0 4.0 0.00 0.00 0.00 89 1049.1
20260507210731 55 215 2.0 4.0 0.00 0.00 0.00 89 1049.1
20260507210631 55 215 2.0 4.0 0.00 0.00 0.00 88 1049.1
20260507210611 55 215 2.0 4.0 0.00 0.00 0.00 88 1049.1
20260507210555 55 214 2.0 4.0 0.00 0.00 0.00 88 1049.1
20260507210232 55 215 2.0 3.0 0.00 0.00 0.00 88 1049.1
20260507210131 55 213 2.0 3.0 0.00 0.00 0.00 88 1049.1
20260507210111 55 215 2.0 3.0 0.00 0.00 0.00 88 1049.1
20260507210056 55 214 2.0 3.0 0.00 0.00 0.00 88 1049.1
20260507210022 55 214 2.0 3.0 0.00 0.00 0.00 88 1049.1
20260507205754 55 215 2.0 3.0 0.00 0.00 0.00 88 1049.1
20260507205744 55 215 2.0 3.0 0.00 0.00 0.00 88 1049.1
20260507205717 55 214 2.0 3.0 0.00 0.00 0.00 88 1049.1
20260507205452 55 214 2.0 3.0 0.00 0.00 0.00 88 1049.1
20260507205220 55 215 2.0 3.0 0.00 0.00 0.00 88 1049.1
20260507205212 55 215 2.0 3.0 0.00 0.00 0.00 87 1049.1
20260507205151 56 214 2.0 3.0 0.00 0.00 0.00 87 1049.1
20260507204927 56 215 2.0 3.0 0.00 0.00 0.00 87 1049.1
20260507204918 56 215 2.0 3.0 0.00 0.00 0.00 87 1049.1
20260507204912 56 215 2.0 3.0 0.00 0.00 0.00 87 1049.1
20260507204332 56 214 2.0 3.0 0.00 0.00 0.00 87 1049.1
20260507204231 56 215 2.0 3.0 0.00 0.00 0.00 87 1049.1
20260507204132 56 215 2.0 3.0 0.00 0.00 0.00 87 1049.1
20260507204042 56 215 2.0 3.0 0.00 0.00 0.00 87 1049.1
20260507204023 56 215 2.0 3.0 0.00 0.00 0.00 87 1049.1
20260507203955 56 215 2.0 3.0 0.00 0.00 0.00 87 1049.0
20260507203632 56 215 2.0 3.0 0.00 0.00 0.00 87 1049.0
20260507203532 56 215 1.0 3.0 0.00 0.00 0.00 86 1049.0
20260507203435 56 215 1.0 3.0 0.00 0.00 0.00 86 1049.0
20260507203331 56 214 1.0 3.0 0.00 0.00 0.00 86 1049.0
20260507203232 56 215 1.0 2.0 0.00 0.00 0.00 86 1049.0
20260507203212 56 215 1.0 2.0 0.00 0.00 0.00 86 1049.0
20260507203201 57 215 1.0 2.0 0.00 0.00 0.00 86 1049.0
20260507202934 57 214 0.0 2.0 0.00 0.00 0.00 86 1049.0
20260507202831 57 215 0.0 2.0 0.00 0.00 0.00 86 1049.0
20260507202732 57 214 0.0 2.0 0.00 0.00 0.00 86 1049.0
20260507202632 57 215 0.0 2.0 0.00 0.00 0.00 86 1049.0
20260507202604 57 214 0.0 1.0 0.00 0.00 0.00 86 1049.0
20260507202547 57 214 0.0 0.0 0.00 0.00 0.00 86 1049.0
20260507202530 57 215 0.0 0.0 0.00 0.00 0.00 86 1049.0
20260507202243 57 215 0.0 0.0 0.00 0.00 0.00 85 1049.0
20260507202231 57 215 0.0 1.0 0.00 0.00 0.00 85 1049.0
20260507202214 57 215 0.0 1.0 0.00 0.00 0.00 86 1048.8
20260507201629 57 215 0.0 1.0 0.00 0.00 0.00 85 1048.8
20260507201621 57 214 0.0 1.0 0.00 0.00 0.00 85 1048.8
20260507201558 57 215 0.0 2.0 0.00 0.00 0.00 85 1048.7
20260507201331 57 215 1.0 2.0 0.00 0.00 0.00 85 1048.7
20260507201320 57 215 1.0 2.0 0.00 0.00 0.00 85 1048.7
20260507201310 58 214 1.0 2.0 0.00 0.00 0.00 85 1048.7
20260507201041 58 215 1.0 2.0 0.00 0.00 0.00 85 1048.6
20260507200713 58 215 1.0 2.0 0.00 0.00 0.00 85 1048.5
20260507200629 58 215 1.0 2.0 0.00 0.00 0.00 85 1048.5
20260507200623 58 214 0.0 2.0 0.00 0.00 0.00 85 1048.5
20260507200612 58 214 0.0 2.0 0.00 0.00 0.00 85 1048.5
20260507200559 58 215 0.0 2.0 0.00 0.00 0.00 85 1048.5
20260507200330 58 215 0.0 2.0 0.00 0.00 0.00 85 1048.5
20260507200007 58 215 0.0 1.0 0.00 0.00 0.00 84 1048.5
20260507195930 58 215 0.0 1.0 0.00 0.00 0.00 84 1048.5
20260507195905 58 214 0.0 1.0 0.00 0.00 0.00 84 1048.5
20260507195806 58 215 0.0 1.0 0.00 0.00 0.00 84 1048.5
20260507195705 58 215 0.0 2.0 0.00 0.00 0.00 84 1048.6
20260507195606 58 214 0.0 2.0 0.00 0.00 0.00 84 1048.6
20260507195505 58 215 0.0 2.0 0.00 0.00 0.00 84 1048.6
20260507195436 58 214 0.0 2.0 0.00 0.00 0.00 84 1048.6
20260507195406 58 215 0.0 2.0 0.00 0.00 0.00 84 1048.6
20260507195306 58 215 0.0 2.0 0.00 0.00 0.00 84 1048.6
20260507195207 58 215 0.0 2.0 0.00 0.00 0.00 83 1048.6
20260507195146 58 215 0.0 2.0 0.00 0.00 0.00 83 1048.6
20260507195138 58 215 0.0 2.0 0.00 0.00 0.00 83 1048.6
20260507195127 58 214 0.0 2.0 0.00 0.00 0.00 83 1048.6
20260507194806 58 214 0.0 2.0 0.00 0.00 0.00 83 1048.6
20260507194703 58 215 0.0 2.0 0.00 0.00 0.00 83 1048.5
20260507194603 59 214 0.0 2.0 0.00 0.00 0.00 83 1048.5
20260507194553 59 214 0.0 2.0 0.00 0.00 0.00 83 1048.5
20260507194541 59 214 1.0 2.0 0.00 0.00 0.00 82 1048.4
20260507194532 59 215 1.0 2.0 0.00 0.00 0.00 82 1048.4
20260507194237 59 215 1.0 2.0 0.00 0.00 0.00 82 1048.4
20260507194228 59 215 1.0 2.0 0.00 0.00 0.00 82 1048.3
20260507193942 59 215 1.0 2.0 0.00 0.00 0.00 82 1048.3
20260507193935 59 215 1.0 2.0 0.00 0.00 0.00 81 1048.3
20260507193928 59 214 1.0 2.0 0.00 0.00 0.00 81 1048.3
20260507193605 59 215 0.0 2.0 0.00 0.00 0.00 81 1048.2
20260507193504 59 215 0.0 2.0 0.00 0.00 0.00 81 1048.2
20260507193418 59 215 0.0 2.0 0.00 0.00 0.00 81 1048.2
20260507193303 60 215 0.0 2.0 0.00 0.00 0.00 81 1048.2
20260507193203 60 214 0.0 1.0 0.00 0.00 0.00 81 1048.2
20260507193104 60 215 0.0 2.0 0.00 0.00 0.00 81 1048.1
20260507193006 60 214 0.0 5.0 0.00 0.00 0.00 81 1048.1
20260507192926 60 215 0.0 5.0 0.00 0.00 0.00 81 1048.1
20260507192902 60 215 0.0 5.0 0.00 0.00 0.00 80 1048.1
20260507192759 60 215 0.0 5.0 0.00 0.00 0.00 80 1048.1
20260507192656 60 214 1.0 5.0 0.00 0.00 0.00 80 1048.0
20260507192554 60 214 1.0 5.0 0.00 0.00 0.00 80 1048.0
20260507192454 60 214 1.0 5.0 0.00 0.00 0.00 80 1048.0
20260507192426 60 215 1.0 5.0 0.00 0.00 0.00 80 1048.0
20260507192354 60 216 1.0 5.0 0.00 0.00 0.00 80 1048.0
20260507192254 60 215 2.0 5.0 0.00 0.00 0.00 80 1047.9
20260507192148 60 214 2.0 5.0 0.00 0.00 0.00 80 1047.9
20260507192131 60 214 2.0 5.0 0.00 0.00 0.00 80 1047.9
20260507192113 60 215 2.0 5.0 0.00 0.00 0.00 80 1047.9
20260507191747 60 215 3.0 5.0 0.00 0.00 0.00 80 1047.9
20260507191649 60 214 3.0 5.0 0.00 0.00 0.00 80 1047.9
20260507191548 60 215 3.0 5.0 0.00 0.00 0.00 79 1047.8
20260507191457 60 215 3.0 5.0 0.00 0.00 0.00 79 1047.8
20260507191444 60 215 3.0 5.0 0.00 0.00 0.00 79 1047.7
20260507191436 60 215 3.0 5.0 0.00 0.00 0.00 79 1047.7
20260507191424 60 214 3.0 5.0 0.00 0.00 0.00 79 1047.7
20260507191416 60 214 3.0 5.0 0.00 0.00 0.00 79 1047.7
20260507191147 61 214 3.0 6.0 0.00 0.00 0.00 79 1047.8
20260507190845 61 214 2.0 6.0 0.00 0.00 0.00 79 1047.8
20260507190745 61 214 2.0 6.0 0.00 0.00 0.00 79 1047.8
20260507190713 61 214 2.0 6.0 0.00 0.00 0.00 78 1047.8
20260507190706 61 213 3.0 6.0 0.00 0.00 0.00 79 1047.9
20260507190427 61 213 3.0 6.0 0.00 0.00 0.00 78 1047.9
20260507190342 61 213 3.0 6.0 0.00 0.00 0.00 78 1047.8
20260507190242 61 213 3.0 7.0 0.00 0.00 0.00 78 1047.8
20260507190207 61 212 3.0 7.0 0.00 0.00 0.00 78 1047.8
20260507190157 61 212 3.0 7.0 0.00 0.00 0.00 78 1047.7
20260507185924 61 212 3.0 7.0 0.00 0.00 0.00 78 1047.8
20260507185832 61 212 3.0 7.0 0.00 0.00 0.00 78 1047.8
20260507185732 61 212 3.0 7.0 0.00 0.00 0.00 77 1047.8
20260507185632 61 212 3.0 7.0 0.00 0.00 0.00 77 1047.8
20260507185532 61 212 3.0 7.0 0.00 0.00 0.00 77 1047.7
20260507185424 61 212 3.0 7.0 0.00 0.00 0.00 77 1047.7
20260507185411 61 212 2.0 7.0 0.00 0.00 0.00 77 1047.7
20260507185403 61 200 2.0 6.0 0.00 0.00 0.00 77 1047.7
20260507185350 62 200 2.0 6.0 0.00 0.00 0.00 77 1047.7
20260507185058 62 199 2.0 6.0 0.00 0.00 0.00 77 1047.7
20260507184731 62 199 3.0 10.0 0.00 0.00 0.00 77 1047.6
20260507184632 62 200 3.0 10.0 0.00 0.00 0.00 76 1047.6
20260507184531 62 199 3.0 10.0 0.00 0.00 0.00 76 1047.6
20260507184435 62 200 3.0 10.0 0.00 0.00 0.00 76 1047.6
20260507184424 62 199 3.0 10.0 0.00 0.00 0.00 76 1047.6
20260507184331 62 199 3.0 10.0 0.00 0.00 0.00 76 1047.6
20260507184232 62 199 4.0 10.0 0.00 0.00 0.00 76 1047.6
20260507184202 62 199 4.0 10.0 0.00 0.00 0.00 76 1047.6
20260507184154 62 200 4.0 10.0 0.00 0.00 0.00 76 1047.5
20260507184143 62 199 4.0 10.0 0.00 0.00 0.00 76 1047.5
20260507183832 62 198 4.0 10.0 0.00 0.00 0.00 75 1047.5
20260507183732 62 192 4.0 7.0 0.00 0.00 0.00 75 1047.5
20260507183632 62 191 4.0 7.0 0.00 0.00 0.00 75 1047.4
20260507183531 62 191 4.0 7.0 0.00 0.00 0.00 75 1047.4
20260507183422 62 191 4.0 7.0 0.00 0.00 0.00 75 1047.3
20260507183331 62 191 4.0 7.0 0.00 0.00 0.00 75 1047.3
20260507183231 62 191 4.0 7.0 0.00 0.00 0.00 75 1047.3
20260507183132 62 191 4.0 7.0 0.00 0.00 0.00 74 1047.2
20260507183036 62 191 5.0 10.0 0.00 0.00 0.00 75 1047.2
20260507183017 62 188 4.0 10.0 0.00 0.00 0.00 75 1047.2
20260507183000 62 187 4.0 10.0 0.00 0.00 0.00 74 1047.2
20260507182953 63 186 4.0 10.0 0.00 0.00 0.00 74 1047.2
20260507182939 63 185 4.0 10.0 0.00 0.00 0.00 74 1047.2
20260507182928 63 183 4.0 10.0 0.00 0.00 0.00 74 1047.2
20260507182918 63 240 4.0 10.0 0.00 0.00 0.00 74 1047.2
20260507182651 63 241 4.0 10.0 0.00 0.00 0.00 73 1047.2
20260507182640 63 241 5.0 10.0 0.00 0.00 0.00 73 1047.2
20260507182634 63 241 5.0 10.0 0.00 0.00 0.00 73 1047.2
20260507182620 63 244 5.0 9.0 0.00 0.00 0.00 73 1047.2
20260507182610 63 231 5.0 9.0 0.00 0.00 0.00 73 1047.2
20260507182342 63 231 5.0 9.0 0.00 0.00 0.00 73 1047.2
20260507182336 63 231 5.0 9.0 0.00 0.00 0.00 73 1047.2
20260507181610 63 230 5.0 10.0 0.00 0.00 0.00 72 1047.2
20260507181344 64 255 5.0 10.0 0.00 0.00 0.00 71 1047.1
20260507181023 64 165 5.0 10.0 0.00 0.00 0.00 71 1047.2
20260507180951 64 237 5.0 10.0 0.00 0.00 0.00 71 1047.0
20260507180938 64 235 5.0 10.0 0.00 0.00 0.00 71 1047.0
20260507180618 64 235 4.0 10.0 0.00 0.00 0.00 70 1047.1
20260507180518 64 249 4.0 10.0 0.00 0.00 0.00 70 1047.0
20260507180421 64 224 4.0 9.0 0.00 0.00 0.00 70 1047.0
20260507180315 64 220 4.0 9.0 0.00 0.00 0.00 69 1047.0
20260507180211 64 221 4.0 9.0 0.00 0.00 0.00 69 1047.0
20260507180112 64 229 3.0 9.0 0.00 0.00 0.00 69 1047.1
20260507180012 64 235 4.0 9.0 0.00 0.00 0.00 69 1047.0
20260507175911 64 253 4.0 8.0 0.00 0.00 0.00 69 1047.0
20260507175811 64 253 4.0 8.0 0.00 0.00 0.00 69 1047.0
20260507175710 64 254 4.0 8.0 0.00 0.00 0.00 68 1047.0
20260507175654 64 253 4.0 8.0 0.00 0.00 0.00 68 1046.9
20260507175643 65 253 4.0 8.0 0.00 0.00 0.00 68 1047.0
20260507175410 65 253 5.0 8.0 0.00 0.00 0.00 68 1046.9
20260507175309 65 256 5.0 8.0 0.00 0.00 0.00 68 1046.9
20260507175207 65 211 5.0 8.0 0.00 0.00 0.00 68 1046.9
20260507175108 65 211 5.0 8.0 0.00 0.00 0.00 67 1046.9
20260507175005 65 210 4.0 8.0 0.00 0.00 0.00 67 1046.9
20260507174906 65 207 4.0 8.0 0.00 0.00 0.00 67 1046.9
20260507174806 65 206 4.0 8.0 0.00 0.00 0.00 67 1046.9
20260507174724 65 206 4.0 8.0 0.00 0.00 0.00 67 1046.9
20260507174715 65 206 4.0 8.0 0.00 0.00 0.00 67 1046.8
20260507174704 65 206 4.0 8.0 0.00 0.00 0.00 67 1046.8
20260507174650 65 206 4.0 8.0 0.00 0.00 0.00 67 1046.8
20260507174424 65 204 3.0 7.0 0.00 0.00 0.00 67 1046.8
20260507174104 65 206 4.0 7.0 0.00 0.00 0.00 67 1046.8
20260507174007 65 189 4.0 9.0 0.00 0.00 0.00 67 1046.8
20260507173903 65 222 4.0 9.0 0.00 0.00 0.00 67 1046.8
20260507173803 65 222 4.0 9.0 0.00 0.00 0.00 67 1046.7
20260507173701 65 223 4.0 9.0 0.00 0.00 0.00 67 1046.8
20260507173631 65 223 4.0 9.0 0.00 0.00 0.00 66 1046.7
20260507173623 65 223 4.0 9.0 0.00 0.00 0.00 66 1046.7
20260507173611 65 223 4.0 9.0 0.00 0.00 0.00 66 1046.8
20260507173252 65 223 4.0 9.0 0.00 0.00 0.00 66 1046.8
20260507173151 65 222 4.0 9.0 0.00 0.00 0.00 65 1046.8
20260507173132 65 226 3.0 9.0 0.00 0.00 0.00 65 1046.8
20260507173124 65 164 3.0 9.0 0.00 0.00 0.00 65 1046.8
20260507173113 65 164 3.0 9.0 0.00 0.00 0.00 64 1046.8
20260507173107 65 164 3.0 9.0 0.00 0.00 0.00 64 1046.8
20260507173057 65 163 3.0 9.0 0.00 0.00 0.00 64 1046.8
20260507173046 65 163 3.0 9.0 0.00 0.00 0.00 63 1046.7
20260507172604 65 219 3.0 9.0 0.00 0.00 0.00 63 1046.7
20260507172307 65 219 4.0 11.0 0.00 0.00 0.00 62 1046.7
20260507172255 65 219 4.0 11.0 0.00 0.00 0.00 62 1046.7
20260507171933 66 220 5.0 11.0 0.00 0.00 0.00 61 1046.7
20260507171909 66 219 5.0 11.0 0.00 0.00 0.00 62 1046.7
20260507171831 66 220 4.0 11.0 0.00 0.00 0.00 62 1046.8
20260507171734 66 214 4.0 11.0 0.00 0.00 0.00 62 1046.7
20260507171633 66 215 4.0 11.0 0.00 0.00 0.00 62 1046.7
20260507171537 66 215 4.0 11.0 0.00 0.00 0.00 62 1046.7
20260507171529 66 216 4.0 11.0 0.00 0.00 0.00 62 1046.7
20260507171519 66 166 4.0 11.0 0.00 0.00 0.00 63 1046.7
20260507171509 66 164 4.0 11.0 0.00 0.00 0.00 63 1046.7
20260507171503 66 152 3.0 8.0 0.00 0.00 0.00 63 1046.7
20260507171454 66 201 3.0 8.0 0.00 0.00 0.00 63 1046.7
20260507171443 66 212 3.0 8.0 0.00 0.00 0.00 63 1046.7
20260507170956 66 194 3.0 6.0 0.00 0.00 0.00 63 1046.7
20260507170632 66 189 4.0 7.0 0.00 0.00 0.00 62 1046.6
20260507170532 66 187 4.0 8.0 0.00 0.00 0.00 61 1046.6
20260507170405 67 186 4.0 10.0 0.00 0.00 0.00 61 1046.6
20260507170353 67 186 4.0 10.0 0.00 0.00 0.00 61 1046.6
20260507170347 67 185 4.0 10.0 0.00 0.00 0.00 60 1046.6
20260507170334 67 204 4.0 10.0 0.00 0.00 0.00 60 1046.6
20260507170326 67 200 4.0 10.0 0.00 0.00 0.00 61 1046.6
20260507170056 67 220 4.0 10.0 0.00 0.00 0.00 61 1046.6
20260507165721 67 172 4.0 10.0 0.00 0.00 0.00 60 1046.6
20260507165622 67 172 3.0 10.0 0.00 0.00 0.00 60 1046.6
20260507165521 67 213 3.0 9.0 0.00 0.00 0.00 60 1046.6
20260507165404 67 183 3.0 7.0 0.00 0.00 0.00 61 1046.5
20260507165315 67 183 3.0 7.0 0.00 0.00 0.00 60 1046.6
20260507165214 67 212 3.0 7.0 0.00 0.00 0.00 61 1046.5
20260507165115 67 212 3.0 7.0 0.00 0.00 0.00 61 1046.5
20260507165032 67 126 3.0 7.0 0.00 0.00 0.00 61 1046.5
20260507165006 68 202 4.0 7.0 0.00 0.00 0.00 61 1046.5
20260507164958 68 201 4.0 7.0 0.00 0.00 0.00 60 1046.5
20260507164935 68 201 4.0 7.0 0.00 0.00 0.00 60 1046.5
20260507164928 68 201 4.0 7.0 0.00 0.00 0.00 60 1046.5
20260507164435 68 198 4.0 9.0 0.00 0.00 0.00 60 1046.5
20260507164426 68 195 4.0 9.0 0.00 0.00 0.00 60 1046.5
20260507164149 68 268 4.0 9.0 0.00 0.00 0.00 60 1046.5
20260507164142 68 220 4.0 9.0 0.00 0.00 0.00 60 1046.5
20260507163906 68 221 4.0 9.0 0.00 0.00 0.00 60 1046.5
20260507163804 68 220 4.0 9.0 0.00 0.00 0.00 60 1046.5
20260507163704 68 212 4.0 9.0 0.00 0.00 0.00 60 1046.5
20260507163604 68 182 4.0 9.0 0.00 0.00 0.00 59 1046.5
20260507163503 68 181 4.0 9.0 0.00 0.00 0.00 60 1046.5
20260507163408 68 188 4.0 9.0 0.00 0.00 0.00 60 1046.5
20260507163306 68 224 4.0 9.0 0.00 0.00 0.00 61 1046.4
20260507163204 67 226 4.0 9.0 0.00 0.00 0.00 60 1046.4
20260507163106 67 227 4.0 9.0 0.00 0.00 0.00 60 1046.4
20260507163004 67 226 4.0 9.0 0.00 0.00 0.00 59 1046.4
20260507162907 67 226 4.0 9.0 0.00 0.00 0.00 59 1046.4
20260507162804 67 211 4.0 9.0 0.00 0.00 0.00 59 1046.4
20260507162703 67 210 4.0 9.0 0.00 0.00 0.00 60 1046.4
20260507162604 67 230 3.0 9.0 0.00 0.00 0.00 59 1046.4
20260507162503 67 135 4.0 8.0 0.00 0.00 0.00 58 1046.3
20260507162406 68 134 4.0 11.0 0.00 0.00 0.00 58 1046.4
20260507162318 68 179 4.0 11.0 0.00 0.00 0.00 58 1046.4
20260507162310 68 211 4.0 11.0 0.00 0.00 0.00 59 1046.3
20260507162254 68 211 4.0 11.0 0.00 0.00 0.00 59 1046.3
20260507162247 68 212 3.0 11.0 0.00 0.00 0.00 60 1046.3
20260507162231 68 258 3.0 11.0 0.00 0.00 0.00 61 1046.3
20260507161957 67 258 4.0 11.0 0.00 0.00 0.00 60 1046.3
20260507161946 67 260 4.0 11.0 0.00 0.00 0.00 60 1046.3
20260507161924 67 261 4.0 11.0 0.00 0.00 0.00 59 1046.3
20260507161907 67 206 4.0 10.0 0.00 0.00 0.00 59 1046.3
20260507161851 67 142 4.0 10.0 0.00 0.00 0.00 59 1046.4
20260507161620 67 141 5.0 10.0 0.00 0.00 0.00 59 1046.4
20260507161031 67 185 5.0 10.0 0.00 0.00 0.00 60 1046.4
20260507160704 67 179 5.0 11.0 0.00 0.00 0.00 60 1046.4
20260507160644 67 178 5.0 11.0 0.00 0.00 0.00 60 1046.4
20260507160637 67 191 5.0 11.0 0.00 0.00 0.00 60 1046.3
20260507160618 67 200 5.0 11.0 0.00 0.00 0.00 61 1046.4
20260507160306 67 181 6.0 11.0 0.00 0.00 0.00 61 1046.3
20260507160203 67 197 6.0 12.0 0.00 0.00 0.00 61 1046.3
20260507160110 67 181 6.0 12.0 0.00 0.00 0.00 62 1046.3
20260507160004 67 168 6.0 12.0 0.00 0.00 0.00 61 1046.3
20260507155906 67 166 6.0 12.0 0.00 0.00 0.00 61 1046.3
20260507155805 67 206 6.0 12.0 0.00 0.00 0.00 62 1046.2
20260507155731 67 221 6.0 12.0 0.00 0.00 0.00 61 1046.2
20260507155722 67 223 6.0 12.0 0.00 0.00 0.00 61 1046.2
20260507155406 67 221 6.0 12.0 0.00 0.00 0.00 61 1046.2
20260507155306 67 228 6.0 14.0 0.00 0.00 0.00 61 1046.3
20260507155204 67 230 6.0 14.0 0.00 0.00 0.00 61 1046.3
20260507155145 67 268 6.0 14.0 0.00 0.00 0.00 61 1046.3
20260507155137 67 212 6.0 14.0 0.00 0.00 0.00 61 1046.3
20260507154905 68 196 6.0 14.0 0.00 0.00 0.00 61 1046.4
20260507154804 68 129 6.0 14.0 0.00 0.00 0.00 61 1046.3
20260507154705 68 120 6.0 14.0 0.00 0.00 0.00 61 1046.3
20260507154603 68 172 6.0 14.0 0.00 0.00 0.00 61 1046.3
20260507154503 68 199 6.0 14.0 0.00 0.00 0.00 61 1046.3
20260507154407 68 212 5.0 14.0 0.00 0.00 0.00 61 1046.3
20260507154301 68 214 5.0 13.0 0.00 0.00 0.00 61 1046.4
20260507154201 68 203 5.0 12.0 0.00 0.00 0.00 62 1046.4
20260507154101 68 210 5.0 12.0 0.00 0.00 0.00 62 1046.4
20260507154001 68 231 6.0 12.0 0.00 0.00 0.00 62 1046.4
20260507153911 68 172 6.0 11.0 0.00 0.00 0.00 62 1046.4
20260507153758 67 183 6.0 11.0 0.00 0.00 0.00 62 1046.4
20260507153657 67 155 6.0 11.0 0.00 0.00 0.00 62 1046.4
20260507153557 67 170 5.0 11.0 0.00 0.00 0.00 63 1046.5
20260507153457 67 217 6.0 11.0 0.00 0.00 0.00 63 1046.4
20260507153358 67 215 5.0 11.0 0.00 0.00 0.00 62 1046.4
20260507153318 67 221 5.0 11.0 0.00 0.00 0.00 62 1046.5
20260507153309 67 199 5.0 11.0 0.00 0.00 0.00 62 1046.4
20260507152945 67 202 4.0 11.0 0.00 0.00 0.00 63 1046.5
20260507152848 67 233 4.0 9.0 0.00 0.00 0.00 63 1046.4
20260507152812 67 177 3.0 8.0 0.00 0.00 0.00 64 1046.4
20260507152805 67 179 4.0 8.0 0.00 0.00 0.00 64 1046.4
20260507152439 67 180 3.0 8.0 0.00 0.00 0.00 63 1046.4
20260507152339 67 181 3.0 8.0 0.00 0.00 0.00 63 1046.4
20260507152239 67 179 3.0 8.0 0.00 0.00 0.00 63 1046.4
20260507152139 67 174 4.0 8.0 0.00 0.00 0.00 63 1046.4
20260507152039 67 207 4.0 8.0 0.00 0.00 0.00 63 1046.4
20260507151939 67 207 4.0 9.0 0.00 0.00 0.00 62 1046.4
20260507151839 67 129 4.0 9.0 0.00 0.00 0.00 62 1046.5
20260507151737 68 141 4.0 13.0 0.00 0.00 0.00 62 1046.4
20260507151637 68 135 4.0 13.0 0.00 0.00 0.00 63 1046.5
20260507151556 68 245 4.0 13.0 0.00 0.00 0.00 64 1046.5
20260507151549 68 245 5.0 13.0 0.00 0.00 0.00 64 1046.5
20260507151526 67 245 5.0 13.0 0.00 0.00 0.00 64 1046.5
20260507151504 67 164 5.0 13.0 0.00 0.00 0.00 63 1046.4
20260507151237 67 125 5.0 13.0 0.00 0.00 0.00 64 1046.4
20260507151227 67 98 4.0 13.0 0.00 0.00 0.00 63 1046.4
20260507150958 68 134 4.0 13.0 0.00 0.00 0.00 63 1046.4
20260507150633 68 103 5.0 9.0 0.00 0.00 0.00 63 1046.4
20260507150534 68 100 5.0 9.0 0.00 0.00 0.00 62 1046.4
20260507150435 68 162 5.0 9.0 0.00 0.00 0.00 63 1046.6
20260507150334 67 222 5.0 9.0 0.00 0.00 0.00 63 1046.5
20260507150232 67 183 5.0 9.0 0.00 0.00 0.00 62 1046.5
20260507150132 67 143 5.0 10.0 0.00 0.00 0.00 63 1046.6
20260507150112 67 214 5.0 11.0 0.00 0.00 0.00 63 1046.6
20260507150103 67 215 5.0 11.0 0.00 0.00 0.00 62 1046.5
20260507150052 67 218 6.0 11.0 0.00 0.00 0.00 62 1046.6
20260507145731 67 218 6.0 11.0 0.00 0.00 0.00 63 1046.5
20260507145657 67 206 6.0 11.0 0.00 0.00 0.00 63 1046.6
20260507145648 67 200 5.0 11.0 0.00 0.00 0.00 63 1046.6
20260507145641 67 200 5.0 11.0 0.00 0.00 0.00 63 1046.6
20260507145620 67 201 5.0 11.0 0.00 0.00 0.00 63 1046.6
20260507145612 67 197 5.0 11.0 0.00 0.00 0.00 63 1046.6
20260507145603 67 217 5.0 11.0 0.00 0.00 0.00 64 1046.6
20260507145557 67 151 5.0 9.0 0.00 0.00 0.00 63 1046.6
20260507145111 67 164 5.0 9.0 0.00 0.00 0.00 63 1046.6
20260507144531 67 200 5.0 9.0 0.00 0.00 0.00 64 1046.7
20260507144431 67 174 5.0 9.0 0.00 0.00 0.00 63 1046.6
20260507144345 67 77 5.0 9.0 0.00 0.00 0.00 64 1046.7
20260507144332 67 143 5.0 9.0 0.00 0.00 0.00 64 1046.7
20260507144231 67 174 5.0 9.0 0.00 0.00 0.00 64 1046.7
20260507144131 67 182 5.0 9.0 0.00 0.00 0.00 65 1046.6
20260507144031 67 230 5.0 9.0 0.00 0.00 0.00 65 1046.6
20260507143931 67 249 5.0 9.0 0.00 0.00 0.00 66 1046.7
20260507143842 67 244 5.0 9.0 0.00 0.00 0.00 66 1046.7
20260507143831 67 241 5.0 9.0 0.00 0.00 0.00 66 1046.7
20260507143731 66 210 4.0 9.0 0.00 0.00 0.00 66 1046.7
20260507143631 66 224 4.0 8.0 0.00 0.00 0.00 66 1046.7
20260507143529 66 247 4.0 8.0 0.00 0.00 0.00 66 1046.6
20260507143429 66 260 3.0 8.0 0.00 0.00 0.00 65 1046.7
20260507143342 66 228 3.0 8.0 0.00 0.00 0.00 65 1046.7
20260507143329 66 227 3.0 8.0 0.00 0.00 0.00 65 1046.7
20260507143229 66 226 3.0 8.0 0.00 0.00 0.00 65 1046.8
20260507143132 66 166 3.0 8.0 0.00 0.00 0.00 65 1046.8
20260507143030 66 166 3.0 8.0 0.00 0.00 0.00 64 1046.8
20260507142927 66 166 3.0 8.0 0.00 0.00 0.00 65 1046.8
20260507142829 66 166 3.0 8.0 0.00 0.00 0.00 65 1046.8
20260507142727 66 166 3.0 9.0 0.00 0.00 0.00 65 1046.8
20260507142628 67 221 3.0 9.0 0.00 0.00 0.00 65 1046.8
20260507142527 67 221 3.0 9.0 0.00 0.00 0.00 65 1046.8
20260507142438 66 220 4.0 9.0 0.00 0.00 0.00 66 1046.7
20260507142426 66 221 4.0 9.0 0.00 0.00 0.00 66 1046.8
20260507142417 66 222 4.0 9.0 0.00 0.00 0.00 66 1046.8
20260507142404 66 210 4.0 9.0 0.00 0.00 0.00 66 1046.8
20260507142136 66 231 4.0 10.0 0.00 0.00 0.00 66 1046.8
20260507142124 66 231 4.0 10.0 0.00 0.00 0.00 66 1046.9
20260507142112 66 231 4.0 10.0 0.00 0.00 0.00 67 1046.9
20260507141847 66 229 5.0 10.0 0.00 0.00 0.00 66 1046.9
20260507141524 66 239 4.0 10.0 0.00 0.00 0.00 67 1047.0
20260507141423 66 202 5.0 10.0 0.00 0.00 0.00 67 1047.0
20260507141323 66 222 4.0 10.0 0.00 0.00 0.00 67 1047.1
20260507141223 66 222 4.0 10.0 0.00 0.00 0.00 67 1047.1
20260507141123 66 230 4.0 9.0 0.00 0.00 0.00 67 1047.1
20260507141111 66 231 4.0 9.0 0.00 0.00 0.00 67 1047.1
20260507141059 66 228 4.0 9.0 0.00 0.00 0.00 67 1047.1
20260507140821 66 231 4.0 9.0 0.00 0.00 0.00 67 1047.1
20260507140752 66 197 4.0 9.0 0.00 0.00 0.00 67 1047.1
20260507140743 66 228 4.0 8.0 0.00 0.00 0.00 67 1047.1
20260507140500 66 225 4.0 9.0 0.00 0.00 0.00 67 1047.2
20260507140442 66 226 5.0 9.0 0.00 0.00 0.00 67 1047.2
20260507140116 66 225 4.0 10.0 0.00 0.00 0.00 68 1047.2
20260507140016 66 174 4.0 10.0 0.00 0.00 0.00 69 1047.2
20260507135940 66 224 4.0 10.0 0.00 0.00 0.00 69 1047.3
20260507135925 66 224 4.0 10.0 0.00 0.00 0.00 69 1047.2
20260507135918 65 224 4.0 10.0 0.00 0.00 0.00 69 1047.2
20260507135909 65 231 4.0 10.0 0.00 0.00 0.00 69 1047.2
20260507135856 65 222 3.0 10.0 0.00 0.00 0.00 70 1047.2
20260507135849 65 222 3.0 10.0 0.00 0.00 0.00 70 1047.2
20260507135841 65 207 3.0 10.0 0.00 0.00 0.00 70 1047.1
20260507135832 65 208 3.0 10.0 0.00 0.00 0.00 70 1047.2
20260507135823 65 199 3.0 10.0 0.00 0.00 0.00 70 1047.2
20260507135550 65 222 3.0 9.0 0.00 0.00 0.00 71 1047.2
20260507135539 65 221 3.0 9.0 0.00 0.00 0.00 71 1047.2
20260507135528 65 213 3.0 9.0 0.00 0.00 0.00 72 1047.2
20260507135259 65 213 3.0 9.0 0.00 0.00 0.00 71 1047.2
20260507135033 65 210 3.0 9.0 0.00 0.00 0.00 71 1047.3
20260507134803 65 210 3.0 9.0 0.00 0.00 0.00 72 1047.3
20260507134753 65 210 3.0 9.0 0.00 0.00 0.00 72 1047.3
20260507134746 65 209 3.0 9.0 0.00 0.00 0.00 73 1047.3
20260507134518 65 227 3.0 8.0 0.00 0.00 0.00 72 1047.2
20260507134509 65 149 3.0 8.0 0.00 0.00 0.00 73 1047.3
20260507134502 65 149 4.0 8.0 0.00 0.00 0.00 73 1047.3
20260507134450 64 149 4.0 8.0 0.00 0.00 0.00 72 1047.3
20260507133732 64 226 4.0 10.0 0.00 0.00 0.00 74 1047.3
20260507133459 64 127 5.0 10.0 0.00 0.00 0.00 74 1047.3
20260507133448 64 185 5.0 10.0 0.00 0.00 0.00 74 1047.3
20260507133438 64 200 5.0 10.0 0.00 0.00 0.00 74 1047.4
20260507133431 64 260 5.0 10.0 0.00 0.00 0.00 75 1047.4
20260507133417 64 258 5.0 10.0 0.00 0.00 0.00 75 1047.4
20260507133149 64 266 4.0 10.0 0.00 0.00 0.00 76 1047.5
20260507132609 63 228 5.0 11.0 0.00 0.00 0.00 76 1047.5
20260507132509 63 229 5.0 11.0 0.00 0.00 0.00 76 1047.5
20260507132409 63 166 6.0 11.0 0.00 0.00 0.00 78 1047.5
20260507132348 64 169 6.0 11.0 0.00 0.00 0.00 78 1047.6
20260507132341 64 188 6.0 11.0 0.00 0.00 0.00 78 1047.6
20260507132331 64 228 6.0 11.0 0.00 0.00 0.00 78 1047.5
20260507132011 64 227 6.0 11.0 0.00 0.00 0.00 79 1047.5
20260507131909 64 220 7.0 11.0 0.00 0.00 0.00 79 1047.4
20260507131831 64 219 7.0 11.0 0.00 0.00 0.00 79 1047.5
20260507131809 64 241 7.0 11.0 0.00 0.00 0.00 79 1047.5
20260507131709 64 244 7.0 11.0 0.00 0.00 0.00 79 1047.5
20260507131610 64 240 7.0 11.0 0.00 0.00 0.00 79 1047.5
20260507131510 64 239 7.0 11.0 0.00 0.00 0.00 79 1047.5
20260507131409 64 260 6.0 11.0 0.00 0.00 0.00 78 1047.5
20260507131332 64 243 6.0 11.0 0.00 0.00 0.00 78 1047.5
20260507131318 64 241 6.0 11.0 0.00 0.00 0.00 78 1047.5
20260507131209 64 235 6.0 11.0 0.00 0.00 0.00 77 1047.6
20260507131105 64 237 6.0 11.0 0.00 0.00 0.00 77 1047.6
20260507131005 64 231 6.0 12.0 0.00 0.00 0.00 77 1047.6
20260507130917 64 245 6.0 12.0 0.00 0.00 0.00 77 1047.6
20260507130856 64 243 6.0 12.0 0.00 0.00 0.00 77 1047.7
20260507130848 65 222 6.0 12.0 0.00 0.00 0.00 76 1047.7
20260507130836 65 268 6.0 12.0 0.00 0.00 0.00 76 1047.7
20260507130551 65 264 5.0 12.0 0.00 0.00 0.00 75 1047.7
20260507130308 65 260 5.0 12.0 0.00 0.00 0.00 74 1047.9
20260507130206 65 239 5.0 12.0 0.00 0.00 0.00 72 1047.8
20260507130110 65 268 5.0 12.0 0.00 0.00 0.00 71 1047.8
20260507130101 65 219 4.0 9.0 0.00 0.00 0.00 70 1047.8
20260507130051 65 216 4.0 9.0 0.00 0.00 0.00 70 1047.9
20260507130040 65 216 4.0 9.0 0.00 0.00 0.00 69 1048.0
20260507130028 65 208 4.0 9.0 0.00 0.00 0.00 69 1048.0
20260507125756 64 205 4.0 9.0 0.00 0.00 0.00 69 1048.0
20260507125532 65 147 4.0 10.0 0.00 0.00 0.00 69 1048.0
20260507125521 65 146 4.0 10.0 0.00 0.00 0.00 69 1048.0
20260507125510 65 206 4.0 10.0 0.00 0.00 0.00 69 1048.0
20260507125241 65 240 4.0 10.0 0.00 0.00 0.00 69 1048.0
20260507125231 65 108 4.0 10.0 0.00 0.00 0.00 69 1048.0
20260507125221 65 259 4.0 10.0 0.00 0.00 0.00 69 1048.0
20260507125211 65 247 4.0 10.0 0.00 0.00 0.00 69 1048.0
20260507124940 65 193 4.0 10.0 0.00 0.00 0.00 69 1048.0
20260507124929 65 194 4.0 10.0 0.00 0.00 0.00 69 1048.0
20260507124921 65 195 3.0 10.0 0.00 0.00 0.00 69 1048.0
20260507124912 65 210 3.0 10.0 0.00 0.00 0.00 69 1048.0
20260507124644 65 177 3.0 10.0 0.00 0.00 0.00 68 1048.0
20260507124159 65 126 3.0 8.0 0.00 0.00 0.00 68 1047.9
20260507123923 65 207 3.0 8.0 0.00 0.00 0.00 68 1047.9
20260507123916 65 141 3.0 8.0 0.00 0.00 0.00 68 1047.9
20260507123849 65 135 4.0 11.0 0.00 0.00 0.00 69 1047.9
20260507123621 65 133 4.0 11.0 0.00 0.00 0.00 68 1047.9
20260507123610 65 133 4.0 11.0 0.00 0.00 0.00 68 1047.9
20260507123304 65 133 4.0 11.0 0.00 0.00 0.00 67 1047.9
20260507123208 65 133 4.0 11.0 0.00 0.00 0.00 68 1047.9
20260507123120 65 174 4.0 11.0 0.00 0.00 0.00 68 1047.9
20260507123111 65 214 3.0 11.0 0.00 0.00 0.00 67 1047.9
20260507123053 65 177 4.0 11.0 0.00 0.00 0.00 67 1047.9
20260507122807 65 177 3.0 11.0 0.00 0.00 0.00 67 1047.9
20260507122730 65 228 4.0 9.0 0.00 0.00 0.00 67 1047.9
20260507122722 65 172 4.0 9.0 0.00 0.00 0.00 67 1047.9
20260507122710 65 172 3.0 9.0 0.00 0.00 0.00 67 1047.9
20260507122701 65 172 3.0 9.0 0.00 0.00 0.00 67 1047.9
20260507122647 65 171 4.0 9.0 0.00 0.00 0.00 66 1047.8
20260507122417 65 177 4.0 10.0 0.00 0.00 0.00 67 1047.8
20260507122407 65 92 4.0 10.0 0.00 0.00 0.00 66 1047.8
20260507122132 65 92 4.0 10.0 0.00 0.00 0.00 66 1047.7
20260507122111 65 116 4.0 10.0 0.00 0.00 0.00 66 1047.7
20260507122056 65 114 4.0 10.0 0.00 0.00 0.00 66 1047.7
20260507121551 65 119 4.0 10.0 0.00 0.00 0.00 66 1047.8
20260507121527 66 164 5.0 10.0 0.00 0.00 0.00 66 1047.9
20260507121201 66 154 5.0 10.0 0.00 0.00 0.00 66 1047.9
20260507121102 66 184 4.0 10.0 0.00 0.00 0.00 66 1048.0
20260507120958 66 194 4.0 10.0 0.00 0.00 0.00 65 1047.9
20260507120853 66 188 4.0 10.0 0.00 0.00 0.00 65 1047.9
20260507120839 66 184 4.0 10.0 0.00 0.00 0.00 65 1047.9
20260507120829 66 102 4.0 9.0 0.00 0.00 0.00 65 1047.9
20260507120818 66 89 4.0 9.0 0.00 0.00 0.00 64 1047.9
20260507120807 66 208 4.0 9.0 0.00 0.00 0.00 64 1047.9
20260507120539 67 93 4.0 9.0 0.00 0.00 0.00 63 1047.8
20260507120530 67 101 4.0 9.0 0.00 0.00 0.00 63 1047.8
20260507120149 67 237 4.0 9.0 0.00 0.00 0.00 63 1047.8
20260507120120 67 141 4.0 9.0 0.00 0.00 0.00 63 1047.9
20260507120113 67 180 4.0 9.0 0.00 0.00 0.00 62 1047.9
20260507120056 67 184 4.0 9.0 0.00 0.00 0.00 62 1047.9
20260507115743 67 121 4.0 9.0 0.00 0.00 0.00 62 1047.9
20260507115726 67 221 4.0 9.0 0.00 0.00 0.00 62 1047.9
20260507115718 67 233 3.0 9.0 0.00 0.00 0.00 62 1047.8
20260507115705 67 234 3.0 9.0 0.00 0.00 0.00 61 1047.8
20260507115657 67 197 3.0 7.0 0.00 0.00 0.00 61 1047.9
20260507115648 67 184 3.0 7.0 0.00 0.00 0.00 61 1047.9
20260507115638 67 184 2.0 7.0 0.00 0.00 0.00 61 1047.9
20260507115630 67 189 2.0 6.0 0.00 0.00 0.00 62 1047.8
20260507115144 67 130 3.0 9.0 0.00 0.00 0.00 62 1047.8
20260507114915 67 129 3.0 9.0 0.00 0.00 0.00 62 1047.8
20260507114904 67 64 3.0 9.0 0.00 0.00 0.00 62 1047.8
20260507114857 67 64 4.0 9.0 0.00 0.00 0.00 62 1047.8
20260507114621 67 64 4.0 9.0 0.00 0.00 0.00 61 1047.8
20260507114350 67 64 4.0 9.0 0.00 0.00 0.00 62 1047.9
20260507114339 67 62 4.0 9.0 0.00 0.00 0.00 61 1047.8
20260507114109 67 98 4.0 9.0 0.00 0.00 0.00 60 1047.9
20260507114053 67 93 4.0 8.0 0.00 0.00 0.00 59 1047.9
20260507113737 67 93 4.0 8.0 0.00 0.00 0.00 59 1047.9
20260507113637 67 91 4.0 8.0 0.00 0.00 0.00 59 1047.9
20260507113537 67 83 4.0 10.0 0.00 0.00 0.00 60 1047.9
20260507113435 67 219 3.0 10.0 0.00 0.00 0.00 60 1047.9
20260507113342 67 109 4.0 10.0 0.00 0.00 0.00 60 1048.0
20260507113333 67 108 4.0 10.0 0.00 0.00 0.00 60 1048.0
20260507113234 67 109 4.0 10.0 0.00 0.00 0.00 59 1048.0
20260507113137 67 106 4.0 10.0 0.00 0.00 0.00 58 1048.0
20260507113035 67 50 4.0 10.0 0.00 0.00 0.00 57 1048.0
20260507112933 67 86 4.0 10.0 0.00 0.00 0.00 56 1048.0
20260507112831 68 87 3.0 10.0 0.00 0.00 0.00 57 1048.0
20260507112732 68 87 3.0 10.0 0.00 0.00 0.00 58 1048.0
20260507112632 68 82 3.0 10.0 0.00 0.00 0.00 58 1048.0
20260507112532 68 149 3.0 8.0 0.00 0.00 0.00 58 1048.0
20260507112429 68 149 3.0 8.0 0.00 0.00 0.00 57 1048.0
20260507112327 68 149 3.0 8.0 0.00 0.00 0.00 57 1048.0
20260507112227 68 100 3.0 8.0 0.00 0.00 0.00 57 1048.1
20260507112129 68 188 3.0 8.0 0.00 0.00 0.00 56 1048.0
20260507112027 68 150 3.0 8.0 0.00 0.00 0.00 59 1048.1
20260507111923 68 151 3.0 8.0 0.00 0.00 0.00 58 1048.1
20260507111823 68 147 3.0 8.0 0.00 0.00 0.00 58 1048.1
20260507111723 68 147 4.0 8.0 0.00 0.00 0.00 57 1048.1
20260507111621 68 118 4.0 9.0 0.00 0.00 0.00 57 1048.1
20260507111521 68 106 3.0 9.0 0.00 0.00 0.00 57 1048.1
20260507111415 68 83 3.0 9.0 0.00 0.00 0.00 56 1048.1
20260507111315 68 131 4.0 9.0 0.00 0.00 0.00 56 1048.1
20260507111217 68 159 4.0 9.0 0.00 0.00 0.00 55 1048.2
20260507111121 68 159 5.0 10.0 0.00 0.00 0.00 55 1048.2
20260507111109 68 159 5.0 10.0 0.00 0.00 0.00 57 1048.2
20260507111058 68 131 5.0 10.0 0.00 0.00 0.00 55 1048.2
20260507110807 68 131 5.0 10.0 0.00 0.00 0.00 55 1048.2
20260507110707 68 153 5.0 10.0 0.00 0.00 0.00 55 1048.2
20260507110607 68 167 4.0 10.0 0.00 0.00 0.00 56 1048.3
20260507110515 68 72 4.0 10.0 0.00 0.00 0.00 57 1048.3
20260507110506 68 73 4.0 10.0 0.00 0.00 0.00 56 1048.2
20260507110448 68 72 4.0 10.0 0.00 0.00 0.00 56 1048.3
20260507110146 68 97 4.0 10.0 0.00 0.00 0.00 57 1048.3
20260507110138 68 85 4.0 10.0 0.00 0.00 0.00 59 1048.3
20260507110127 67 88 3.0 10.0 0.00 0.00 0.00 59 1048.4
20260507110113 67 126 3.0 10.0 0.00 0.00 0.00 59 1048.4
20260507105844 67 150 3.0 8.0 0.00 0.00 0.00 57 1048.4
20260507105606 67 157 3.0 8.0 0.00 0.00 0.00 59 1048.4
20260507105553 67 153 3.0 8.0 0.00 0.00 0.00 59 1048.4
20260507105308 67 150 4.0 8.0 0.00 0.00 0.00 61 1048.4
20260507105201 66 125 4.0 10.0 0.00 0.00 0.00 61 1048.4
20260507105130 66 126 4.0 10.0 0.00 0.00 0.00 61 1048.4
20260507105122 66 126 4.0 10.0 0.00 0.00 0.00 60 1048.4
20260507104831 66 126 4.0 10.0 0.00 0.00 0.00 60 1048.4
20260507104800 66 127 4.0 10.0 0.00 0.00 0.00 61 1048.4
20260507104746 66 128 4.0 10.0 0.00 0.00 0.00 60 1048.4
20260507104737 66 127 4.0 10.0 0.00 0.00 0.00 60 1048.4
20260507104724 66 127 4.0 10.0 0.00 0.00 0.00 60 1048.4
20260507104455 66 127 4.0 10.0 0.00 0.00 0.00 59 1048.5
20260507104440 66 131 4.0 10.0 0.00 0.00 0.00 59 1048.5
20260507104215 66 71 4.0 9.0 0.00 0.00 0.00 58 1048.4
20260507104155 66 70 5.0 10.0 0.00 0.00 0.00 58 1048.4
20260507104147 66 69 5.0 10.0 0.00 0.00 0.00 59 1048.4
20260507104136 66 72 5.0 10.0 0.00 0.00 0.00 58 1048.5
20260507103555 66 73 5.0 10.0 0.00 0.00 0.00 59 1048.5
20260507103452 66 68 5.0 10.0 0.00 0.00 0.00 58 1048.5
20260507103353 66 88 5.0 10.0 0.00 0.00 0.00 58 1048.5
20260507103333 66 102 5.0 10.0 0.00 0.00 0.00 59 1048.5
20260507103252 66 113 5.0 10.0 0.00 0.00 0.00 59 1048.5
20260507103150 66 114 5.0 10.0 0.00 0.00 0.00 59 1048.6
20260507103049 67 112 5.0 10.0 0.00 0.00 0.00 59 1048.5
20260507102948 67 122 5.0 9.0 0.00 0.00 0.00 60 1048.6
20260507102849 67 116 4.0 9.0 0.00 0.00 0.00 60 1048.6
20260507102835 67 132 4.0 9.0 0.00 0.00 0.00 60 1048.6
20260507102818 67 143 4.0 9.0 0.00 0.00 0.00 61 1048.6
20260507102810 67 94 3.0 9.0 0.00 0.00 0.00 62 1048.6
20260507102802 67 85 3.0 9.0 0.00 0.00 0.00 61 1048.6
20260507102751 67 132 3.0 9.0 0.00 0.00 0.00 61 1048.6
20260507102737 67 133 3.0 9.0 0.00 0.00 0.00 61 1048.7
20260507102253 67 164 3.0 8.0 0.00 0.00 0.00 62 1048.7
20260507102242 67 166 3.0 8.0 0.00 0.00 0.00 63 1048.7
20260507102232 67 175 2.0 8.0 0.00 0.00 0.00 62 1048.7
20260507102006 67 177 3.0 8.0 0.00 0.00 0.00 62 1048.7
20260507101711 67 86 2.0 8.0 0.00 0.00 0.00 63 1048.7
20260507101659 66 86 2.0 8.0 0.00 0.00 0.00 62 1048.7
20260507101334 66 181 2.0 7.0 0.00 0.00 0.00 62 1048.7
20260507101239 66 181 3.0 7.0 0.00 0.00 0.00 61 1048.7
20260507101131 66 182 3.0 8.0 0.00 0.00 0.00 62 1048.8
20260507101029 66 181 3.0 10.0 0.00 0.00 0.00 62 1048.8
20260507100929 66 181 4.0 10.0 0.00 0.00 0.00 63 1048.8
20260507100829 66 181 3.0 10.0 0.00 0.00 0.00 63 1048.8
20260507100727 66 177 4.0 10.0 0.00 0.00 0.00 64 1048.8
20260507100625 66 176 4.0 10.0 0.00 0.00 0.00 64 1048.8
20260507100525 66 177 4.0 10.0 0.00 0.00 0.00 63 1048.8
20260507100425 66 180 4.0 10.0 0.00 0.00 0.00 63 1049.0
20260507100339 66 85 4.0 10.0 0.00 0.00 0.00 62 1049.0
20260507100325 66 86 4.0 10.0 0.00 0.00 0.00 62 1049.0
20260507100222 66 87 4.0 10.0 0.00 0.00 0.00 63 1049.0
20260507100123 66 95 3.0 10.0 0.00 0.00 0.00 63 1049.0
20260507100026 66 145 3.0 9.0 0.00 0.00 0.00 64 1049.0
20260507095923 66 156 3.0 7.0 0.00 0.00 0.00 65 1049.0
20260507095836 66 157 3.0 7.0 0.00 0.00 0.00 65 1049.0
20260507095823 66 157 3.0 7.0 0.00 0.00 0.00 64 1049.0
20260507095723 66 156 3.0 7.0 0.00 0.00 0.00 64 1049.0
20260507095628 66 149 2.0 7.0 0.00 0.00 0.00 66 1049.0
20260507095618 66 106 2.0 7.0 0.00 0.00 0.00 66 1049.0
20260507095606 65 177 2.0 7.0 0.00 0.00 0.00 66 1049.0
20260507095553 65 179 1.0 7.0 0.00 0.00 0.00 65 1049.0
20260507095544 65 179 1.0 7.0 0.00 0.00 0.00 64 1049.0
20260507095315 65 119 1.0 4.0 0.00 0.00 0.00 64 1049.0
20260507095306 65 119 1.0 4.0 0.00 0.00 0.00 64 1049.0
20260507095258 65 118 1.0 4.0 0.00 0.00 0.00 66 1049.1
20260507094714 65 118 2.0 6.0 0.00 0.00 0.00 65 1049.0
20260507094618 65 118 2.0 6.0 0.00 0.00 0.00 65 1049.0
20260507094607 65 118 2.0 6.0 0.00 0.00 0.00 65 1049.0
20260507094556 65 119 2.0 6.0 0.00 0.00 0.00 65 1049.0
20260507094308 65 118 2.0 6.0 0.00 0.00 0.00 66 1049.0
20260507094241 65 118 2.0 6.0 0.00 0.00 0.00 65 1049.0
20260507094233 65 118 2.0 6.0 0.00 0.00 0.00 65 1049.1
20260507093904 64 118 2.0 6.0 0.00 0.00 0.00 66 1049.1
20260507093832 64 118 2.0 6.0 0.00 0.00 0.00 66 1049.1
20260507093805 64 119 2.0 6.0 0.00 0.00 0.00 66 1049.1
20260507093704 64 118 2.0 6.0 0.00 0.00 0.00 66 1049.1
20260507093607 64 119 2.0 6.0 0.00 0.00 0.00 66 1049.0
20260507093535 64 119 2.0 6.0 0.00 0.00 0.00 67 1049.1
20260507093518 64 119 2.0 6.0 0.00 0.00 0.00 68 1049.1
20260507093505 64 119 2.0 6.0 0.00 0.00 0.00 68 1049.1
20260507093455 64 115 2.0 6.0 0.00 0.00 0.00 67 1049.1
20260507092913 64 115 2.0 6.0 0.00 0.00 0.00 67 1049.1
20260507092902 64 114 2.0 6.0 0.00 0.00 0.00 68 1049.2
20260507092850 64 115 2.0 6.0 0.00 0.00 0.00 68 1049.2
20260507092836 63 115 3.0 6.0 0.00 0.00 0.00 68 1049.2
20260507092609 63 115 3.0 6.0 0.00 0.00 0.00 69 1049.2
20260507092555 63 115 3.0 7.0 0.00 0.00 0.00 68 1049.2
20260507092326 63 114 3.0 7.0 0.00 0.00 0.00 68 1049.2
20260507092318 63 115 3.0 7.0 0.00 0.00 0.00 68 1049.1
20260507091950 64 114 3.0 7.0 0.00 0.00 0.00 68 1049.2
20260507091905 64 115 3.0 7.0 0.00 0.00 0.00 67 1049.2
20260507091857 64 115 3.0 7.0 0.00 0.00 0.00 68 1049.2
20260507091845 64 115 3.0 7.0 0.00 0.00 0.00 67 1049.2
20260507091615 64 116 2.0 7.0 0.00 0.00 0.00 68 1049.2
20260507091333 64 123 2.0 7.0 0.00 0.00 0.00 68 1049.2
20260507091242 64 120 2.0 7.0 0.00 0.00 0.00 67 1049.2
20260507091141 63 115 2.0 7.0 0.00 0.00 0.00 67 1049.1